Time,TemperatureF,DewpointF,PressureIn,WindDirection,WindDirectionDegrees,WindSpeedMPH,WindSpeedGustMPH,Humidity,HourlyPrecipIn,Conditions,Clouds,dailyrainin,SoftwareType,DateUTC
2013-02-10 00:00:00,37.6,31.7,30.04,SSE,150,11.0,11.0,79,0.00,,,0.00,Wunderground v.1.15,2013-02-10 06:00:00,
2013-02-10 00:01:00,37.6,31.7,30.04,SSE,152,11.0,13.0,79,0.00,,,0.00,Wunderground v.1.15,2013-02-10 06:01:00,
2013-02-10 00:04:00,37.6,31.7,30.04,SSE,158,11.0,17.0,79,0.00,,,0.00,Wunderground v.1.15,2013-02-10 06:04:00,
2013-02-10 00:07:00,37.6,31.7,30.04,SSE,153,11.0,17.0,79,0.00,,,0.00,Wunderground v.1.15,2013-02-10 06:07:00,
2013-02-10 00:08:00,37.6,31.7,30.05,SE,145,11.0,17.0,79,0.00,,,0.00,Wunderground v.1.15,2013-02-10 06:08:00,
2013-02-10 00:11:00,37.6,31.7,30.05,SE,143,11.0,11.0,79,0.00,,,0.00,Wunderground v.1.15,2013-02-10 06:11:00,
2013-02-10 00:14:00,37.6,31.7,30.05,SE,127,10.0,11.0,79,0.00,,,0.00,Wunderground v.1.15,2013-02-10 06:14:00,
2013-02-10 00:15:00,37.5,31.6,30.05,SSE,166,10.0,14.0,79,0.00,,,0.00,Wunderground v.1.15,2013-02-10 06:15:00,
2013-02-10 00:16:00,37.5,31.6,30.05,South,172,10.0,14.0,79,0.00,,,0.00,Wunderground v.1.15,2013-02-10 06:16:00,
2013-02-10 00:17:00,37.5,31.6,30.05,SSE,154,10.0,14.0,79,0.00,,,0.00,Wunderground v.1.15,2013-02-10 06:17:00,
2013-02-10 00:19:00,37.5,31.9,30.05,SSE,155,10.0,14.0,80,0.00,,,0.00,Wunderground v.1.15,2013-02-10 06:19:00,
2013-02-10 00:24:00,37.4,31.8,30.05,South,170,11.0,15.0,80,0.00,,,0.00,Wunderground v.1.15,2013-02-10 06:24:00,
2013-02-10 00:25:00,37.4,31.8,30.05,SSE,165,12.0,15.0,80,0.00,,,0.00,Wunderground v.1.15,2013-02-10 06:25:00,
2013-02-10 00:29:00,37.2,31.9,30.05,SSE,162,11.0,15.0,81,0.00,,,0.00,Wunderground v.1.15,2013-02-10 06:29:00,
2013-02-10 00:30:00,37.1,32.1,30.05,SSE,165,11.0,11.0,82,0.00,,,0.00,Wunderground v.1.15,2013-02-10 06:30:00,
2013-02-10 00:32:00,37.1,32.1,30.04,SSE,150,11.0,14.0,82,0.00,,,0.00,Wunderground v.1.15,2013-02-10 06:32:00,
2013-02-10 00:36:00,36.9,32.2,30.04,ESE,106,10.0,14.0,83,0.00,,,0.01,Wunderground v.1.15,2013-02-10 06:36:00,
2013-02-10 00:37:00,36.8,32.1,30.04,SE,138,10.0,14.0,83,0.00,,,0.01,Wunderground v.1.15,2013-02-10 06:37:00,
2013-02-10 00:39:00,36.7,32.3,30.04,SSE,148,10.0,14.0,84,0.00,,,0.01,Wunderground v.1.15,2013-02-10 06:39:00,
2013-02-10 00:40:00,36.7,32.3,30.04,SSW,195,10.0,11.0,84,0.00,,,0.01,Wunderground v.1.15,2013-02-10 06:40:00,
2013-02-10 00:42:00,36.6,32.2,30.04,ESE,108,10.0,11.0,84,0.00,,,0.01,Wunderground v.1.15,2013-02-10 06:42:00,
2013-02-10 00:43:00,36.6,32.2,30.04,SSE,152,10.0,11.0,84,0.00,,,0.01,Wunderground v.1.15,2013-02-10 06:43:00,
2013-02-10 00:45:00,36.6,32.2,30.04,SSE,152,10.0,15.0,84,0.00,,,0.01,Wunderground v.1.15,2013-02-10 06:45:00,
2013-02-10 00:48:00,36.5,32.4,30.04,SSE,166,10.0,15.0,85,0.00,,,0.01,Wunderground v.1.15,2013-02-10 06:48:00,
2013-02-10 00:50:00,36.5,32.4,30.04,South,174,10.0,10.0,85,0.00,,,0.01,Wunderground v.1.15,2013-02-10 06:50:00,
2013-02-10 00:53:00,36.5,32.4,30.04,SSE,166,10.0,12.0,85,0.00,,,0.01,Wunderground v.1.15,2013-02-10 06:53:00,
2013-02-10 00:55:00,36.5,32.4,30.04,South,177,10.0,12.0,85,0.00,,,0.01,Wunderground v.1.15,2013-02-10 06:55:00,
2013-02-10 00:57:00,36.4,32.3,30.04,South,175,10.0,12.0,85,0.00,,,0.01,Wunderground v.1.15,2013-02-10 06:57:00,
2013-02-10 00:58:00,36.5,32.4,30.04,SSE,165,10.0,12.0,85,0.00,,,0.01,Wunderground v.1.15,2013-02-10 06:58:00,
2013-02-10 01:00:00,36.4,32.3,30.04,SSE,162,9.0,9.0,85,0.00,,,0.01,Wunderground v.1.15,2013-02-10 07:00:00,
2013-02-10 01:02:00,36.4,32.6,30.04,SSE,163,9.0,10.0,86,0.00,,,0.01,Wunderground v.1.15,2013-02-10 07:02:00,
2013-02-10 01:03:00,36.4,32.6,30.04,SSE,158,9.0,10.0,86,0.00,,,0.01,Wunderground v.1.15,2013-02-10 07:03:00,
2013-02-10 01:07:00,36.4,32.6,30.04,South,177,10.0,11.0,86,0.00,,,0.01,Wunderground v.1.15,2013-02-10 07:07:00,
2013-02-10 01:09:00,36.4,32.6,30.04,South,169,10.0,11.0,86,0.00,,,0.01,Wunderground v.1.15,2013-02-10 07:09:00,
2013-02-10 01:11:00,36.4,32.6,30.04,SE,142,9.0,10.0,86,0.00,,,0.01,Wunderground v.1.15,2013-02-10 07:11:00,
2013-02-10 01:12:00,36.4,32.6,30.04,SSE,149,9.0,10.0,86,0.00,,,0.01,Wunderground v.1.15,2013-02-10 07:12:00,
2013-02-10 01:13:00,36.4,32.9,30.04,SSE,159,9.0,10.0,87,0.00,,,0.01,Wunderground v.1.15,2013-02-10 07:13:00,
2013-02-10 01:15:00,36.3,32.8,30.04,South,171,9.0,14.0,87,0.00,,,0.01,Wunderground v.1.15,2013-02-10 07:15:00,
2013-02-10 01:16:00,36.3,32.8,30.03,SSE,165,9.0,14.0,87,0.00,,,0.01,Wunderground v.1.15,2013-02-10 07:16:00,
2013-02-10 01:17:00,36.3,32.8,30.03,SSE,155,9.0,14.0,87,0.00,,,0.01,Wunderground v.1.15,2013-02-10 07:17:00,
2013-02-10 01:22:00,36.2,32.7,30.03,SSE,158,8.0,12.0,87,0.00,,,0.01,Wunderground v.1.15,2013-02-10 07:22:00,
2013-02-10 01:23:00,36.2,32.7,30.03,SSE,155,8.0,12.0,87,0.00,,,0.01,Wunderground v.1.15,2013-02-10 07:23:00,
2013-02-10 01:24:00,36.2,32.7,30.03,SE,146,8.0,12.0,87,0.00,,,0.01,Wunderground v.1.15,2013-02-10 07:24:00,
2013-02-10 01:26:00,36.1,32.6,30.03,SE,134,8.0,16.0,87,0.00,,,0.01,Wunderground v.1.15,2013-02-10 07:26:00,
2013-02-10 01:27:00,36.1,32.9,30.02,SSE,154,8.0,16.0,88,0.00,,,0.01,Wunderground v.1.15,2013-02-10 07:27:00,
2013-02-10 01:31:00,36.1,32.9,30.02,SE,125,9.0,9.0,88,0.00,,,0.01,Wunderground v.1.15,2013-02-10 07:31:00,
2013-02-10 01:33:00,36.0,32.8,30.02,SE,145,9.0,9.0,88,0.00,,,0.01,Wunderground v.1.15,2013-02-10 07:33:00,
2013-02-10 01:34:00,36.0,32.8,30.02,SE,143,9.0,9.0,88,0.00,,,0.01,Wunderground v.1.15,2013-02-10 07:34:00,
2013-02-10 01:35:00,36.0,32.8,30.02,SE,142,9.0,10.0,88,0.00,,,0.01,Wunderground v.1.15,2013-02-10 07:35:00,
2013-02-10 01:38:00,36.0,33.1,30.01,SE,131,8.0,10.0,89,0.00,,,0.01,Wunderground v.1.15,2013-02-10 07:38:00,
2013-02-10 01:40:00,36.0,33.1,30.01,ESE,120,8.0,8.0,89,0.00,,,0.01,Wunderground v.1.15,2013-02-10 07:40:00,
2013-02-10 01:45:00,36.1,33.2,30.01,SE,124,9.0,12.0,89,0.00,,,0.02,Wunderground v.1.15,2013-02-10 07:45:00,
2013-02-10 01:48:00,36.1,33.2,30.01,SE,124,9.0,12.0,89,0.00,,,0.02,Wunderground v.1.15,2013-02-10 07:48:00,
2013-02-10 01:49:00,36.1,33.2,30.01,SSE,156,9.0,12.0,89,0.00,,,0.02,Wunderground v.1.15,2013-02-10 07:49:00,
2013-02-10 01:51:00,36.1,33.2,30.01,SSE,153,9.0,11.0,89,0.00,,,0.02,Wunderground v.1.15,2013-02-10 07:51:00,
2013-02-10 01:52:00,36.0,33.1,30.01,SE,143,9.0,11.0,89,0.00,,,0.02,Wunderground v.1.15,2013-02-10 07:52:00,
2013-02-10 01:55:00,36.0,33.1,30.01,SSE,150,8.0,11.0,89,0.00,,,0.02,Wunderground v.1.15,2013-02-10 07:55:00,
2013-02-10 01:57:00,36.0,33.1,30.01,SSE,153,9.0,12.0,89,0.00,,,0.02,Wunderground v.1.15,2013-02-10 07:57:00,
2013-02-10 01:58:00,36.0,33.1,30.01,SSE,149,8.0,12.0,89,0.00,,,0.02,Wunderground v.1.15,2013-02-10 07:58:00,
2013-02-10 02:00:00,36.0,33.1,30.01,ESE,122,8.0,9.0,89,0.00,,,0.02,Wunderground v.1.15,2013-02-10 08:00:00,
2013-02-10 02:02:00,36.0,33.1,30.01,SSE,159,8.0,9.0,89,0.00,,,0.02,Wunderground v.1.15,2013-02-10 08:02:00,
2013-02-10 02:04:00,36.0,33.1,30.01,SE,146,8.0,9.0,89,0.00,,,0.02,Wunderground v.1.15,2013-02-10 08:04:00,
2013-02-10 02:07:00,36.0,33.4,30.01,SE,145,8.0,9.0,90,0.00,,,0.02,Wunderground v.1.15,2013-02-10 08:07:00,
2013-02-10 02:10:00,36.0,33.4,30.00,SE,129,8.0,8.0,90,0.00,,,0.02,Wunderground v.1.15,2013-02-10 08:10:00,
2013-02-10 02:11:00,36.1,33.5,30.00,SE,139,8.0,8.0,90,0.00,,,0.02,Wunderground v.1.15,2013-02-10 08:11:00,
2013-02-10 02:13:00,36.1,33.5,30.01,SE,133,8.0,11.0,90,0.00,,,0.02,Wunderground v.1.15,2013-02-10 08:13:00,
2013-02-10 02:15:00,36.1,33.5,30.01,SE,129,8.0,11.0,90,0.00,,,0.03,Wunderground v.1.15,2013-02-10 08:15:00,
2013-02-10 02:16:00,36.1,33.5,30.01,SE,135,8.0,11.0,90,0.00,,,0.03,Wunderground v.1.15,2013-02-10 08:16:00,
2013-02-10 02:18:00,36.1,33.5,30.00,SSE,152,8.0,11.0,90,0.00,,,0.03,Wunderground v.1.15,2013-02-10 08:18:00,
2013-02-10 02:19:00,36.1,33.5,30.00,ESE,105,8.0,11.0,90,0.00,,,0.03,Wunderground v.1.15,2013-02-10 08:19:00,
2013-02-10 02:20:00,36.1,33.5,30.00,SE,143,8.0,9.0,90,0.00,,,0.03,Wunderground v.1.15,2013-02-10 08:20:00,
2013-02-10 02:22:00,36.1,33.5,30.00,SE,127,8.0,10.0,90,0.00,,,0.03,Wunderground v.1.15,2013-02-10 08:22:00,
2013-02-10 02:25:00,36.1,33.5,30.00,SSE,152,8.0,11.0,90,0.00,,,0.03,Wunderground v.1.15,2013-02-10 08:25:00,
2013-02-10 02:27:00,36.1,33.5,30.00,SE,139,9.0,11.0,90,0.00,,,0.03,Wunderground v.1.15,2013-02-10 08:27:00,
2013-02-10 02:30:00,36.1,33.5,30.00,SE,134,9.0,12.0,90,0.04,,,0.04,Wunderground v.1.15,2013-02-10 08:30:00,
2013-02-10 02:31:00,36.1,33.5,30.00,SE,141,9.0,12.0,90,0.04,,,0.04,Wunderground v.1.15,2013-02-10 08:31:00,
2013-02-10 02:32:00,36.1,33.5,30.00,SE,144,9.0,12.0,90,0.04,,,0.04,Wunderground v.1.15,2013-02-10 08:32:00,
2013-02-10 02:35:00,36.1,33.7,30.00,SE,128,9.0,12.0,91,0.04,,,0.04,Wunderground v.1.15,2013-02-10 08:35:00,
2013-02-10 02:36:00,36.1,33.7,30.00,ESE,122,9.0,12.0,91,0.04,,,0.04,Wunderground v.1.15,2013-02-10 08:36:00,
2013-02-10 02:40:00,36.1,33.7,30.00,SSE,150,9.0,10.0,91,0.04,,,0.04,Wunderground v.1.15,2013-02-10 08:40:00,
2013-02-10 02:41:00,36.1,33.7,29.99,SE,129,8.0,10.0,91,0.04,,,0.04,Wunderground v.1.15,2013-02-10 08:41:00,
2013-02-10 02:44:00,36.2,33.8,29.99,SSE,148,9.0,11.0,91,0.04,,,0.04,Wunderground v.1.15,2013-02-10 08:44:00,
2013-02-10 02:47:00,36.2,33.8,29.99,SE,141,9.0,11.0,91,0.00,,,0.04,Wunderground v.1.15,2013-02-10 08:47:00,
2013-02-10 02:51:00,36.3,33.9,29.99,SSE,158,9.0,10.0,91,0.00,,,0.04,Wunderground v.1.15,2013-02-10 08:51:00,
2013-02-10 02:52:00,36.3,33.9,29.99,SE,136,9.0,10.0,91,0.00,,,0.04,Wunderground v.1.15,2013-02-10 08:52:00,
2013-02-10 02:54:00,36.3,33.9,29.99,SE,131,9.0,10.0,91,0.00,,,0.04,Wunderground v.1.15,2013-02-10 08:54:00,
2013-02-10 02:58:00,36.3,33.9,29.99,SE,141,8.0,11.0,91,0.00,,,0.05,Wunderground v.1.15,2013-02-10 08:58:00,
2013-02-10 02:59:00,36.3,33.9,29.99,SE,132,8.0,11.0,91,0.00,,,0.05,Wunderground v.1.15,2013-02-10 08:59:00,
2013-02-10 03:01:00,36.3,33.9,29.99,SE,136,8.0,10.0,91,0.00,,,0.05,Wunderground v.1.15,2013-02-10 09:01:00,
2013-02-10 03:02:00,36.3,33.9,29.99,SE,145,8.0,10.0,91,0.00,,,0.05,Wunderground v.1.15,2013-02-10 09:02:00,
2013-02-10 03:04:00,36.3,33.9,29.98,SE,136,8.0,10.0,91,0.07,,,0.06,Wunderground v.1.15,2013-02-10 09:04:00,
2013-02-10 03:06:00,36.3,33.9,29.98,ESE,107,8.0,12.0,91,0.07,,,0.06,Wunderground v.1.15,2013-02-10 09:06:00,
2013-02-10 03:08:00,36.2,34.1,29.97,ESE,122,8.0,12.0,92,0.07,,,0.06,Wunderground v.1.15,2013-02-10 09:08:00,
2013-02-10 03:09:00,36.2,34.1,29.97,SE,141,8.0,12.0,92,0.07,,,0.06,Wunderground v.1.15,2013-02-10 09:09:00,
2013-02-10 03:10:00,36.2,34.1,29.97,ESE,116,8.0,8.0,92,0.07,,,0.06,Wunderground v.1.15,2013-02-10 09:10:00,
2013-02-10 03:13:00,36.1,34.0,29.97,SE,125,8.0,10.0,92,0.06,,,0.06,Wunderground v.1.15,2013-02-10 09:13:00,
2013-02-10 03:14:00,36.1,34.0,29.96,SE,132,9.0,10.0,92,0.06,,,0.06,Wunderground v.1.15,2013-02-10 09:14:00,
2013-02-10 03:17:00,36.1,34.0,29.96,SE,126,9.0,15.0,92,0.05,,,0.06,Wunderground v.1.15,2013-02-10 09:17:00,
2013-02-10 03:19:00,36.1,34.0,29.96,SE,136,9.0,15.0,92,0.04,,,0.06,Wunderground v.1.15,2013-02-10 09:19:00,
2013-02-10 03:22:00,36.0,34.2,29.95,SE,133,9.0,9.0,93,0.04,,,0.07,Wunderground v.1.15,2013-02-10 09:22:00,
2013-02-10 03:24:00,36.0,34.2,29.96,ESE,108,8.0,9.0,93,0.04,,,0.07,Wunderground v.1.15,2013-02-10 09:24:00,
2013-02-10 03:25:00,36.0,34.2,29.96,ESE,110,8.0,9.0,93,0.04,,,0.07,Wunderground v.1.15,2013-02-10 09:25:00,
2013-02-10 03:29:00,36.0,34.2,29.96,SE,125,7.0,10.0,93,0.10,,,0.08,Wunderground v.1.15,2013-02-10 09:29:00,
2013-02-10 03:30:00,36.0,34.2,29.96,SE,136,7.0,7.0,93,0.10,,,0.08,Wunderground v.1.15,2013-02-10 09:30:00,
2013-02-10 03:31:00,36.0,34.2,29.96,SSE,152,7.0,7.0,93,0.10,,,0.08,Wunderground v.1.15,2013-02-10 09:31:00,
2013-02-10 03:34:00,36.0,34.2,29.96,ESE,120,7.0,11.0,93,0.11,,,0.09,Wunderground v.1.15,2013-02-10 09:34:00,
2013-02-10 03:35:00,36.0,34.2,29.96,SE,126,7.0,11.0,93,0.11,,,0.09,Wunderground v.1.15,2013-02-10 09:35:00,
2013-02-10 03:37:00,36.1,34.3,29.96,SSE,148,8.0,13.0,93,0.11,,,0.09,Wunderground v.1.15,2013-02-10 09:37:00,
2013-02-10 03:39:00,36.1,34.3,29.95,South,173,7.0,13.0,93,0.08,,,0.09,Wunderground v.1.15,2013-02-10 09:39:00,
2013-02-10 03:42:00,36.1,34.5,29.96,SSE,158,8.0,9.0,94,0.06,,,0.09,Wunderground v.1.15,2013-02-10 09:42:00,
2013-02-10 03:43:00,36.1,34.5,29.96,SSE,148,7.0,9.0,94,0.05,,,0.09,Wunderground v.1.15,2013-02-10 09:43:00,
2013-02-10 03:46:00,36.2,34.6,29.96,ESE,118,7.0,9.0,94,0.04,,,0.10,Wunderground v.1.15,2013-02-10 09:46:00,
2013-02-10 03:47:00,36.1,34.5,29.95,SE,134,7.0,9.0,94,0.04,,,0.10,Wunderground v.1.15,2013-02-10 09:47:00,
2013-02-10 03:50:00,36.2,34.6,29.95,SE,133,7.0,10.0,94,0.04,,,0.10,Wunderground v.1.15,2013-02-10 09:50:00,
2013-02-10 03:52:00,36.2,34.6,29.95,SE,138,7.0,10.0,94,0.04,,,0.10,Wunderground v.1.15,2013-02-10 09:52:00,
2013-02-10 03:53:00,36.2,34.6,29.95,ESE,120,7.0,10.0,94,0.09,,,0.11,Wunderground v.1.15,2013-02-10 09:53:00,
2013-02-10 03:56:00,36.2,34.6,29.95,SSE,147,7.0,10.0,94,0.09,,,0.11,Wunderground v.1.15,2013-02-10 09:56:00,
2013-02-10 03:58:00,36.3,34.7,29.94,SSE,148,8.0,10.0,94,0.16,,,0.12,Wunderground v.1.15,2013-02-10 09:58:00,
2013-02-10 04:01:00,36.3,34.7,29.94,SE,131,8.0,10.0,94,0.13,,,0.12,Wunderground v.1.15,2013-02-10 10:01:00,
2013-02-10 04:03:00,36.3,34.7,29.94,SE,134,7.0,10.0,94,0.09,,,0.12,Wunderground v.1.15,2013-02-10 10:03:00,
2013-02-10 04:04:00,36.3,34.7,29.94,SE,125,7.0,10.0,94,0.08,,,0.12,Wunderground v.1.15,2013-02-10 10:04:00,
2013-02-10 04:07:00,36.3,34.7,29.94,SE,145,8.0,11.0,94,0.06,,,0.12,Wunderground v.1.15,2013-02-10 10:07:00,
2013-02-10 04:09:00,36.3,34.7,29.93,East,91,8.0,11.0,94,0.05,,,0.12,Wunderground v.1.15,2013-02-10 10:09:00,
2013-02-10 04:11:00,36.4,34.8,29.94,SE,142,8.0,9.0,94,0.04,,,0.12,Wunderground v.1.15,2013-02-10 10:11:00,
2013-02-10 04:14:00,36.4,34.8,29.94,SE,142,9.0,11.0,94,0.00,,,0.12,Wunderground v.1.15,2013-02-10 10:14:00,
2013-02-10 04:17:00,36.4,34.8,29.93,SE,135,8.0,11.0,94,0.00,,,0.12,Wunderground v.1.15,2013-02-10 10:17:00,
2013-02-10 04:18:00,36.4,34.8,29.93,SE,132,8.0,11.0,94,0.00,,,0.12,Wunderground v.1.15,2013-02-10 10:18:00,
2013-02-10 04:21:00,36.4,34.8,29.93,SE,129,8.0,10.0,94,0.00,,,0.12,Wunderground v.1.15,2013-02-10 10:21:00,
2013-02-10 04:23:00,36.4,34.8,29.93,SE,126,7.0,10.0,94,0.00,,,0.12,Wunderground v.1.15,2013-02-10 10:23:00,
2013-02-10 04:24:00,36.4,34.8,29.93,East,94,7.0,16.0,94,0.00,,,0.12,Wunderground v.1.15,2013-02-10 10:24:00,
2013-02-10 04:26:00,36.4,34.8,29.93,SSE,165,8.0,16.0,94,0.00,,,0.13,Wunderground v.1.15,2013-02-10 10:26:00,
2013-02-10 04:27:00,36.4,34.8,29.93,SE,125,8.0,16.0,94,0.00,,,0.13,Wunderground v.1.15,2013-02-10 10:27:00,
2013-02-10 04:29:00,36.4,34.8,29.93,ESE,114,8.0,16.0,94,0.00,,,0.13,Wunderground v.1.15,2013-02-10 10:29:00,
2013-02-10 04:32:00,36.4,34.8,29.93,SSE,148,7.0,8.0,94,0.00,,,0.13,Wunderground v.1.15,2013-02-10 10:32:00,
2013-02-10 04:33:00,36.4,34.8,29.93,SE,145,8.0,8.0,94,0.00,,,0.13,Wunderground v.1.15,2013-02-10 10:33:00,
2013-02-10 04:34:00,36.4,34.8,29.93,SSE,149,8.0,8.0,94,0.00,,,0.13,Wunderground v.1.15,2013-02-10 10:34:00,
2013-02-10 04:37:00,36.4,34.8,29.93,SSE,160,7.0,10.0,94,0.00,,,0.13,Wunderground v.1.15,2013-02-10 10:37:00,
2013-02-10 04:39:00,36.5,34.9,29.93,ESE,108,8.0,11.0,94,0.00,,,0.13,Wunderground v.1.15,2013-02-10 10:39:00,
2013-02-10 04:41:00,36.5,34.9,29.93,SSE,152,8.0,8.0,94,0.00,,,0.13,Wunderground v.1.15,2013-02-10 10:41:00,
2013-02-10 04:42:00,36.5,34.9,29.93,SE,143,8.0,8.0,94,0.00,,,0.13,Wunderground v.1.15,2013-02-10 10:42:00,
2013-02-10 04:45:00,36.5,34.9,29.92,ESE,123,8.0,8.0,94,0.00,,,0.13,Wunderground v.1.15,2013-02-10 10:45:00,
2013-02-10 04:46:00,36.4,34.8,29.92,East,96,8.0,9.0,94,0.00,,,0.13,Wunderground v.1.15,2013-02-10 10:46:00,
2013-02-10 04:47:00,36.5,34.9,29.92,SE,132,8.0,9.0,94,0.00,,,0.13,Wunderground v.1.15,2013-02-10 10:47:00,
2013-02-10 04:48:00,36.4,34.8,29.92,ESE,117,8.0,10.0,94,0.00,,,0.13,Wunderground v.1.15,2013-02-10 10:48:00,
2013-02-10 04:50:00,36.5,34.9,29.92,ESE,120,8.0,8.0,94,0.00,,,0.13,Wunderground v.1.15,2013-02-10 10:50:00,
2013-02-10 04:54:00,36.5,34.9,29.93,SE,132,8.0,10.0,94,0.00,,,0.14,Wunderground v.1.15,2013-02-10 10:54:00,
2013-02-10 04:55:00,36.5,34.9,29.93,SE,134,8.0,10.0,94,0.00,,,0.14,Wunderground v.1.15,2013-02-10 10:55:00,
2013-02-10 04:58:00,36.5,34.9,29.92,SE,125,7.0,10.0,94,0.00,,,0.14,Wunderground v.1.15,2013-02-10 10:58:00,
2013-02-10 04:59:00,36.4,34.8,29.92,ESE,114,7.0,10.0,94,0.00,,,0.14,Wunderground v.1.15,2013-02-10 10:59:00,
2013-02-10 05:01:00,36.4,34.8,29.92,SE,125,7.0,9.0,94,0.00,,,0.14,Wunderground v.1.15,2013-02-10 11:01:00,
2013-02-10 05:03:00,36.4,34.8,29.91,ESE,115,7.0,9.0,94,0.00,,,0.14,Wunderground v.1.15,2013-02-10 11:03:00,
2013-02-10 05:05:00,36.5,34.9,29.91,ESE,110,7.0,9.0,94,0.00,,,0.14,Wunderground v.1.15,2013-02-10 11:05:00,
2013-02-10 05:07:00,36.4,34.8,29.91,SSE,148,7.0,9.0,94,0.00,,,0.14,Wunderground v.1.15,2013-02-10 11:07:00,
2013-02-10 05:10:00,36.4,35.1,29.91,ESE,115,7.0,7.0,95,0.00,,,0.14,Wunderground v.1.15,2013-02-10 11:10:00,
2013-02-10 05:13:00,36.4,35.1,29.91,SE,142,7.0,12.0,95,0.00,,,0.14,Wunderground v.1.15,2013-02-10 11:13:00,
2013-02-10 05:14:00,36.4,35.1,29.91,ESE,119,7.0,12.0,95,0.00,,,0.14,Wunderground v.1.15,2013-02-10 11:14:00,
2013-02-10 05:16:00,36.4,35.1,29.90,South,173,7.0,12.0,95,0.00,,,0.14,Wunderground v.1.15,2013-02-10 11:16:00,
2013-02-10 05:17:00,36.4,35.1,29.90,ESE,118,7.0,12.0,95,0.00,,,0.14,Wunderground v.1.15,2013-02-10 11:17:00,
2013-02-10 05:19:00,36.4,35.1,29.90,East,98,7.0,12.0,95,0.00,,,0.14,Wunderground v.1.15,2013-02-10 11:19:00,
2013-02-10 05:20:00,36.4,35.1,29.90,SE,134,7.0,9.0,95,0.00,,,0.14,Wunderground v.1.15,2013-02-10 11:20:00,
2013-02-10 05:21:00,36.4,35.1,29.90,ESE,118,7.0,9.0,95,0.00,,,0.14,Wunderground v.1.15,2013-02-10 11:21:00,
2013-02-10 05:25:00,36.4,35.1,29.89,SSE,152,7.0,9.0,95,0.00,,,0.14,Wunderground v.1.15,2013-02-10 11:25:00,
2013-02-10 05:26:00,36.4,35.1,29.90,SE,129,7.0,9.0,95,0.00,,,0.14,Wunderground v.1.15,2013-02-10 11:26:00,
2013-02-10 05:27:00,36.4,35.1,29.90,SE,143,7.0,11.0,95,0.00,,,0.14,Wunderground v.1.15,2013-02-10 11:27:00,
2013-02-10 05:32:00,36.4,35.1,29.89,SE,141,7.0,8.0,95,0.00,,,0.15,Wunderground v.1.15,2013-02-10 11:32:00,
2013-02-10 05:33:00,36.4,35.1,29.89,East,96,7.0,9.0,95,0.00,,,0.15,Wunderground v.1.15,2013-02-10 11:33:00,
2013-02-10 05:36:00,36.5,35.2,29.89,East,82,7.0,10.0,95,0.00,,,0.15,Wunderground v.1.15,2013-02-10 11:36:00,
2013-02-10 05:37:00,36.4,35.1,29.89,ESE,110,6.0,10.0,95,0.00,,,0.15,Wunderground v.1.15,2013-02-10 11:37:00,
2013-02-10 05:38:00,36.4,35.1,29.88,SE,131,6.0,10.0,95,0.00,,,0.15,Wunderground v.1.15,2013-02-10 11:38:00,
2013-02-10 05:41:00,36.5,35.2,29.88,SE,132,6.0,7.0,95,0.00,,,0.15,Wunderground v.1.15,2013-02-10 11:41:00,
2013-02-10 05:43:00,36.5,35.2,29.87,East,101,6.0,7.0,95,0.00,,,0.15,Wunderground v.1.15,2013-02-10 11:43:00,
2013-02-10 05:46:00,36.5,35.2,29.87,ESE,107,7.0,11.0,95,0.04,,,0.16,Wunderground v.1.15,2013-02-10 11:46:00,
2013-02-10 05:47:00,36.5,35.2,29.87,ESE,122,7.0,11.0,95,0.04,,,0.16,Wunderground v.1.15,2013-02-10 11:47:00,
2013-02-10 05:49:00,36.5,35.2,29.86,ESE,103,7.0,11.0,95,0.04,,,0.16,Wunderground v.1.15,2013-02-10 11:49:00,
2013-02-10 05:52:00,36.5,35.2,29.86,East,91,7.0,10.0,95,0.04,,,0.16,Wunderground v.1.15,2013-02-10 11:52:00,
2013-02-10 05:53:00,36.5,35.2,29.86,East,98,7.0,10.0,95,0.04,,,0.16,Wunderground v.1.15,2013-02-10 11:53:00,
2013-02-10 05:55:00,36.5,35.2,29.86,SE,133,6.0,10.0,95,0.07,,,0.17,Wunderground v.1.15,2013-02-10 11:55:00,
2013-02-10 05:58:00,36.5,35.2,29.86,ESE,123,6.0,10.0,95,0.18,,,0.18,Wunderground v.1.15,2013-02-10 11:58:00,
2013-02-10 06:00:00,36.5,35.2,29.86,ESE,111,6.0,9.0,95,0.17,,,0.18,Wunderground v.1.15,2013-02-10 12:00:00,
2013-02-10 06:03:00,36.6,35.3,29.86,SE,139,6.0,9.0,95,0.15,,,0.19,Wunderground v.1.15,2013-02-10 12:03:00,
2013-02-10 06:04:00,36.6,35.3,29.86,ESE,105,6.0,10.0,95,0.15,,,0.19,Wunderground v.1.15,2013-02-10 12:04:00,
2013-02-10 06:06:00,36.6,35.3,29.86,ESE,105,6.0,10.0,95,0.12,,,0.20,Wunderground v.1.15,2013-02-10 12:06:00,
2013-02-10 06:09:00,36.7,35.4,29.86,East,98,7.0,10.0,95,0.12,,,0.20,Wunderground v.1.15,2013-02-10 12:09:00,
2013-02-10 06:10:00,36.7,35.4,29.85,East,98,7.0,7.0,95,0.12,,,0.20,Wunderground v.1.15,2013-02-10 12:10:00,
2013-02-10 06:12:00,36.8,35.5,29.85,SE,125,7.0,10.0,95,0.12,,,0.21,Wunderground v.1.15,2013-02-10 12:12:00,
2013-02-10 06:15:00,36.8,35.5,29.85,ESE,123,7.0,10.0,95,0.12,,,0.21,Wunderground v.1.15,2013-02-10 12:15:00,
2013-02-10 06:17:00,36.9,35.6,29.84,ESE,103,6.0,10.0,95,0.09,,,0.21,Wunderground v.1.15,2013-02-10 12:17:00,
2013-02-10 06:19:00,37.0,35.7,29.84,SE,132,6.0,10.0,95,0.07,,,0.21,Wunderground v.1.15,2013-02-10 12:19:00,
2013-02-10 06:21:00,37.1,35.8,29.84,ESE,106,7.0,9.0,95,0.06,,,0.21,Wunderground v.1.15,2013-02-10 12:21:00,
2013-02-10 06:22:00,37.1,35.8,29.84,SE,135,7.0,9.0,95,0.05,,,0.21,Wunderground v.1.15,2013-02-10 12:22:00,
2013-02-10 06:23:00,37.1,35.8,29.84,East,101,7.0,9.0,95,0.05,,,0.21,Wunderground v.1.15,2013-02-10 12:23:00,
2013-02-10 06:28:00,37.2,35.9,29.85,SE,145,7.0,9.0,95,0.04,,,0.22,Wunderground v.1.15,2013-02-10 12:28:00,
2013-02-10 06:29:00,37.3,36.0,29.85,ESE,122,7.0,10.0,95,0.04,,,0.22,Wunderground v.1.15,2013-02-10 12:29:00,
2013-02-10 06:31:00,37.3,36.0,29.85,SE,128,7.0,11.0,95,0.04,,,0.22,Wunderground v.1.15,2013-02-10 12:31:00,
2013-02-10 06:32:00,37.4,36.1,29.85,SE,146,7.0,11.0,95,0.04,,,0.22,Wunderground v.1.15,2013-02-10 12:32:00,
2013-02-10 06:36:00,37.5,36.2,29.84,ESE,117,8.0,11.0,95,0.04,,,0.22,Wunderground v.1.15,2013-02-10 12:36:00,
2013-02-10 06:38:00,37.6,36.3,29.84,ESE,110,8.0,11.0,95,0.04,,,0.22,Wunderground v.1.15,2013-02-10 12:38:00,
2013-02-10 06:39:00,37.6,36.3,29.84,SSE,148,8.0,11.0,95,0.04,,,0.22,Wunderground v.1.15,2013-02-10 12:39:00,
2013-02-10 06:40:00,37.7,36.4,29.84,SE,125,8.0,8.0,95,0.04,,,0.22,Wunderground v.1.15,2013-02-10 12:40:00,
2013-02-10 06:41:00,37.7,36.4,29.84,SE,129,8.0,8.0,95,0.04,,,0.22,Wunderground v.1.15,2013-02-10 12:41:00,
2013-02-10 06:44:00,37.8,36.5,29.84,SE,125,7.0,8.0,95,0.00,,,0.22,Wunderground v.1.15,2013-02-10 12:44:00,
2013-02-10 06:47:00,37.9,36.6,29.84,SE,132,7.0,8.0,95,0.00,,,0.22,Wunderground v.1.15,2013-02-10 12:47:00,
2013-02-10 06:49:00,37.9,36.6,29.83,ESE,120,7.0,10.0,95,0.00,,,0.23,Wunderground v.1.15,2013-02-10 12:49:00,
2013-02-10 06:50:00,37.9,36.6,29.83,ESE,110,7.0,12.0,95,0.00,,,0.23,Wunderground v.1.15,2013-02-10 12:50:00,
2013-02-10 06:51:00,37.9,36.6,29.83,SE,131,7.0,12.0,95,0.00,,,0.23,Wunderground v.1.15,2013-02-10 12:51:00,
2013-02-10 06:55:00,37.9,36.6,29.84,SSE,148,8.0,12.0,95,0.00,,,0.23,Wunderground v.1.15,2013-02-10 12:55:00,
2013-02-10 06:56:00,37.9,36.6,29.85,SSE,158,8.0,12.0,95,0.07,,,0.24,Wunderground v.1.15,2013-02-10 12:56:00,
2013-02-10 06:58:00,38.0,36.7,29.85,ESE,122,9.0,12.0,95,0.07,,,0.24,Wunderground v.1.15,2013-02-10 12:58:00,
2013-02-10 07:00:00,38.0,36.7,29.85,SE,134,9.0,11.0,95,0.07,,,0.24,Wunderground v.1.15,2013-02-10 13:00:00,
2013-02-10 07:03:00,38.0,36.7,29.84,ESE,112,9.0,11.0,95,0.07,,,0.24,Wunderground v.1.15,2013-02-10 13:03:00,
2013-02-10 07:05:00,37.9,36.6,29.83,ESE,123,9.0,11.0,95,0.07,,,0.25,Wunderground v.1.15,2013-02-10 13:05:00,
2013-02-10 07:06:00,37.9,36.6,29.83,ESE,110,8.0,11.0,95,0.07,,,0.25,Wunderground v.1.15,2013-02-10 13:06:00,
2013-02-10 07:08:00,37.9,36.6,29.82,East,86,8.0,11.0,95,0.07,,,0.25,Wunderground v.1.15,2013-02-10 13:08:00,
2013-02-10 07:10:00,37.9,36.6,29.83,ESE,116,8.0,9.0,95,0.07,,,0.25,Wunderground v.1.15,2013-02-10 13:10:00,
2013-02-10 07:11:00,37.9,36.6,29.83,ESE,114,8.0,10.0,95,0.07,,,0.25,Wunderground v.1.15,2013-02-10 13:11:00,
2013-02-10 07:15:00,38.0,36.7,29.83,SSE,162,8.0,12.0,95,0.06,,,0.25,Wunderground v.1.15,2013-02-10 13:15:00,
2013-02-10 07:16:00,37.9,36.6,29.83,East,101,8.0,12.0,95,0.05,,,0.25,Wunderground v.1.15,2013-02-10 13:16:00,
2013-02-10 07:17:00,38.0,36.7,29.83,East,98,8.0,12.0,95,0.05,,,0.25,Wunderground v.1.15,2013-02-10 13:17:00,
2013-02-10 07:20:00,38.0,36.7,29.82,ESE,113,8.0,12.0,95,0.04,,,0.25,Wunderground v.1.15,2013-02-10 13:20:00,
2013-02-10 07:22:00,38.0,36.4,29.82,SE,127,8.0,12.0,94,0.00,,,0.25,Wunderground v.1.15,2013-02-10 13:22:00,
2013-02-10 07:24:00,38.1,36.5,29.82,SSE,148,9.0,12.0,94,0.00,,,0.25,Wunderground v.1.15,2013-02-10 13:24:00,
2013-02-10 07:27:00,38.2,36.6,29.82,SE,143,9.0,12.0,94,0.00,,,0.25,Wunderground v.1.15,2013-02-10 13:27:00,
2013-02-10 07:29:00,38.2,36.6,29.81,SE,136,9.0,14.0,94,0.00,,,0.26,Wunderground v.1.15,2013-02-10 13:29:00,
2013-02-10 07:30:00,38.2,36.6,29.81,SE,145,9.0,10.0,94,0.00,,,0.26,Wunderground v.1.15,2013-02-10 13:30:00,
2013-02-10 07:31:00,38.2,36.6,29.81,ESE,116,9.0,10.0,94,0.00,,,0.26,Wunderground v.1.15,2013-02-10 13:31:00,
2013-02-10 07:32:00,38.2,36.6,29.81,SE,136,9.0,10.0,94,0.00,,,0.26,Wunderground v.1.15,2013-02-10 13:32:00,
2013-02-10 07:36:00,38.2,36.6,29.81,ESE,122,9.0,12.0,94,0.00,,,0.26,Wunderground v.1.15,2013-02-10 13:36:00,
2013-02-10 07:37:00,38.2,36.6,29.81,ESE,117,9.0,12.0,94,0.00,,,0.26,Wunderground v.1.15,2013-02-10 13:37:00,
2013-02-10 07:38:00,38.2,36.6,29.81,ESE,121,9.0,12.0,94,0.00,,,0.26,Wunderground v.1.15,2013-02-10 13:38:00,
2013-02-10 07:41:00,38.1,36.5,29.81,SSE,152,9.0,9.0,94,0.00,,,0.26,Wunderground v.1.15,2013-02-10 13:41:00,
2013-02-10 07:43:00,38.2,36.6,29.81,SE,135,9.0,10.0,94,0.04,,,0.27,Wunderground v.1.15,2013-02-10 13:43:00,
2013-02-10 07:46:00,38.2,36.6,29.80,East,98,9.0,15.0,94,0.04,,,0.27,Wunderground v.1.15,2013-02-10 13:46:00,
2013-02-10 07:48:00,38.2,36.6,29.80,SE,125,9.0,15.0,94,0.04,,,0.27,Wunderground v.1.15,2013-02-10 13:48:00,
2013-02-10 07:50:00,38.2,36.6,29.80,ESE,115,9.0,12.0,94,0.04,,,0.27,Wunderground v.1.15,2013-02-10 13:50:00,
2013-02-10 07:51:00,38.2,36.6,29.80,ESE,118,9.0,12.0,94,0.04,,,0.27,Wunderground v.1.15,2013-02-10 13:51:00,
2013-02-10 07:52:00,38.3,36.7,29.80,ESE,120,9.0,12.0,94,0.04,,,0.27,Wunderground v.1.15,2013-02-10 13:52:00,
2013-02-10 07:53:00,38.3,36.7,29.80,ESE,105,9.0,12.0,94,0.04,,,0.27,Wunderground v.1.15,2013-02-10 13:53:00,
2013-02-10 07:58:00,38.3,36.7,29.79,ESE,103,8.0,12.0,94,0.04,,,0.27,Wunderground v.1.15,2013-02-10 13:58:00,
2013-02-10 07:59:00,38.3,36.7,29.79,ESE,123,8.0,12.0,94,0.04,,,0.27,Wunderground v.1.15,2013-02-10 13:59:00,
2013-02-10 08:01:00,38.3,36.7,29.79,ESE,115,8.0,13.0,94,0.00,,,0.28,Wunderground v.1.15,2013-02-10 14:01:00,
2013-02-10 08:04:00,38.4,36.8,29.79,SE,146,9.0,13.0,94,0.00,,,0.28,Wunderground v.1.15,2013-02-10 14:04:00,
2013-02-10 08:06:00,38.4,36.8,29.79,SE,129,9.0,13.0,94,0.12,,,0.29,Wunderground v.1.15,2013-02-10 14:06:00,
2013-02-10 08:08:00,38.3,36.7,29.79,SSE,150,9.0,13.0,94,0.12,,,0.29,Wunderground v.1.15,2013-02-10 14:08:00,
2013-02-10 08:09:00,38.3,36.7,29.79,East,98,9.0,13.0,94,0.17,,,0.30,Wunderground v.1.15,2013-02-10 14:09:00,
2013-02-10 08:13:00,38.3,36.7,29.80,SSE,158,8.0,9.0,94,0.25,,,0.31,Wunderground v.1.15,2013-02-10 14:13:00,
2013-02-10 08:14:00,38.3,36.7,29.80,SE,142,8.0,10.0,94,0.18,,,0.31,Wunderground v.1.15,2013-02-10 14:14:00,
2013-02-10 08:15:00,38.3,36.7,29.80,SSE,149,7.0,10.0,94,0.15,,,0.32,Wunderground v.1.15,2013-02-10 14:15:00,
2013-02-10 08:18:00,38.3,36.7,29.79,ESE,105,8.0,10.0,94,0.15,,,0.32,Wunderground v.1.15,2013-02-10 14:18:00,
2013-02-10 08:19:00,38.4,36.8,29.79,SE,145,7.0,10.0,94,0.14,,,0.32,Wunderground v.1.15,2013-02-10 14:19:00,
2013-02-10 08:20:00,38.4,36.8,29.79,ESE,116,7.0,7.0,94,0.13,,,0.33,Wunderground v.1.15,2013-02-10 14:20:00,
2013-02-10 08:23:00,38.4,36.8,29.79,ESE,123,7.0,10.0,94,0.13,,,0.33,Wunderground v.1.15,2013-02-10 14:23:00,
2013-02-10 08:25:00,38.4,36.8,29.79,SE,132,8.0,16.0,94,0.42,,,0.35,Wunderground v.1.15,2013-02-10 14:25:00,
2013-02-10 08:29:00,38.4,37.1,29.79,ESE,115,8.0,16.0,95,0.28,,,0.37,Wunderground v.1.15,2013-02-10 14:29:00,
2013-02-10 08:30:00,38.4,36.8,29.79,ESE,115,8.0,12.0,94,0.19,,,0.37,Wunderground v.1.15,2013-02-10 14:30:00,
2013-02-10 08:33:00,38.5,36.9,29.78,SE,141,9.0,12.0,94,0.12,,,0.38,Wunderground v.1.15,2013-02-10 14:33:00,
2013-02-10 08:35:00,38.5,37.2,29.78,SE,134,8.0,12.0,95,0.35,,,0.39,Wunderground v.1.15,2013-02-10 14:35:00,
2013-02-10 08:36:00,38.5,37.2,29.78,ESE,114,8.0,12.0,95,0.34,,,0.40,Wunderground v.1.15,2013-02-10 14:36:00,
2013-02-10 08:37:00,38.4,37.1,29.78,ESE,103,8.0,12.0,95,0.33,,,0.40,Wunderground v.1.15,2013-02-10 14:37:00,
2013-02-10 08:38:00,38.4,37.1,29.78,SE,132,8.0,12.0,95,0.21,,,0.40,Wunderground v.1.15,2013-02-10 14:38:00,
2013-02-10 08:41:00,38.4,37.1,29.78,SE,145,8.0,11.0,95,0.10,,,0.40,Wunderground v.1.15,2013-02-10 14:41:00,
2013-02-10 08:42:00,38.4,37.1,29.78,SE,146,9.0,12.0,95,0.09,,,0.40,Wunderground v.1.15,2013-02-10 14:42:00,
2013-02-10 08:44:00,38.4,37.1,29.78,SSE,150,9.0,12.0,95,0.08,,,0.41,Wunderground v.1.15,2013-02-10 14:44:00,
2013-02-10 08:48:00,38.5,37.2,29.78,SE,127,9.0,12.0,95,0.36,,,0.42,Wunderground v.1.15,2013-02-10 14:48:00,
2013-02-10 08:50:00,38.5,37.2,29.77,SE,138,9.0,9.0,95,0.39,,,0.44,Wunderground v.1.15,2013-02-10 14:50:00,
2013-02-10 08:51:00,38.5,37.2,29.78,SSE,159,9.0,10.0,95,0.35,,,0.44,Wunderground v.1.15,2013-02-10 14:51:00,
2013-02-10 08:53:00,38.5,37.2,29.77,SSE,150,9.0,10.0,95,0.27,,,0.45,Wunderground v.1.15,2013-02-10 14:53:00,
2013-02-10 08:55:00,38.5,37.2,29.77,SE,139,8.0,11.0,95,0.31,,,0.46,Wunderground v.1.15,2013-02-10 14:55:00,
2013-02-10 09:00:00,38.6,37.3,29.76,SE,136,9.0,9.0,95,0.24,,,0.49,Wunderground v.1.15,2013-02-10 15:00:00,
2013-02-10 09:02:00,38.7,37.4,29.76,SE,132,9.0,11.0,95,0.20,,,0.50,Wunderground v.1.15,2013-02-10 15:02:00,
2013-02-10 09:03:00,38.7,37.4,29.76,SE,145,9.0,11.0,95,0.20,,,0.50,Wunderground v.1.15,2013-02-10 15:03:00,
2013-02-10 09:06:00,38.7,37.4,29.76,SE,143,10.0,11.0,95,0.11,,,0.50,Wunderground v.1.15,2013-02-10 15:06:00,
2013-02-10 09:07:00,38.8,37.5,29.76,SE,141,10.0,11.0,95,0.09,,,0.50,Wunderground v.1.15,2013-02-10 15:07:00,
2013-02-10 09:08:00,38.8,37.5,29.76,SE,124,10.0,11.0,95,0.08,,,0.50,Wunderground v.1.15,2013-02-10 15:08:00,
2013-02-10 09:11:00,38.9,37.6,29.75,SE,132,10.0,12.0,95,0.06,,,0.50,Wunderground v.1.15,2013-02-10 15:11:00,
2013-02-10 09:12:00,38.9,37.6,29.75,SE,146,10.0,12.0,95,0.05,,,0.50,Wunderground v.1.15,2013-02-10 15:12:00,
2013-02-10 09:14:00,39.0,37.7,29.75,East,98,10.0,12.0,95,0.04,,,0.50,Wunderground v.1.15,2013-02-10 15:14:00,
2013-02-10 09:17:00,39.1,37.8,29.74,SSE,150,10.0,12.0,95,0.04,,,0.50,Wunderground v.1.15,2013-02-10 15:17:00,
2013-02-10 09:19:00,39.1,37.8,29.74,SSE,153,10.0,12.0,95,0.00,,,0.50,Wunderground v.1.15,2013-02-10 15:19:00,
2013-02-10 09:20:00,39.2,37.9,29.74,SE,125,10.0,11.0,95,0.00,,,0.50,Wunderground v.1.15,2013-02-10 15:20:00,
2013-02-10 09:25:00,39.3,38.0,29.74,SSE,159,10.0,11.0,95,0.00,,,0.51,Wunderground v.1.15,2013-02-10 15:25:00,
2013-02-10 09:26:00,39.3,38.0,29.74,SE,145,10.0,15.0,95,0.00,,,0.51,Wunderground v.1.15,2013-02-10 15:26:00,
2013-02-10 09:28:00,39.5,38.2,29.74,South,181,11.0,15.0,95,0.00,,,0.51,Wunderground v.1.15,2013-02-10 15:28:00,
2013-02-10 09:31:00,39.5,38.2,29.73,ESE,122,12.0,19.0,95,0.00,,,0.51,Wunderground v.1.15,2013-02-10 15:31:00,
2013-02-10 09:32:00,39.5,38.2,29.74,SE,132,12.0,19.0,95,0.00,,,0.51,Wunderground v.1.15,2013-02-10 15:32:00,
2013-02-10 09:34:00,39.6,38.3,29.73,SSE,158,12.0,19.0,95,0.06,,,0.52,Wunderground v.1.15,2013-02-10 15:34:00,
2013-02-10 09:35:00,39.6,38.3,29.73,SE,138,12.0,19.0,95,0.06,,,0.52,Wunderground v.1.15,2013-02-10 15:35:00,
2013-02-10 09:36:00,39.6,38.3,29.73,SSE,159,12.0,19.0,95,0.06,,,0.52,Wunderground v.1.15,2013-02-10 15:36:00,
2013-02-10 09:38:00,39.6,38.3,29.73,SSE,150,12.0,19.0,95,0.15,,,0.53,Wunderground v.1.15,2013-02-10 15:38:00,
2013-02-10 09:40:00,39.7,38.4,29.73,ESE,123,12.0,12.0,95,0.15,,,0.53,Wunderground v.1.15,2013-02-10 15:40:00,
2013-02-10 09:41:00,39.7,38.4,29.73,South,174,12.0,12.0,95,0.14,,,0.54,Wunderground v.1.15,2013-02-10 15:41:00,
2013-02-10 09:43:00,39.7,38.4,29.73,SE,128,12.0,12.0,95,0.59,,,0.55,Wunderground v.1.15,2013-02-10 15:43:00,
2013-02-10 09:45:00,39.7,38.4,29.73,SE,136,11.0,12.0,95,0.71,,,0.58,Wunderground v.1.15,2013-02-10 15:45:00,
2013-02-10 09:46:00,39.7,38.4,29.73,ESE,123,11.0,12.0,95,0.46,,,0.58,Wunderground v.1.15,2013-02-10 15:46:00,
2013-02-10 09:49:00,39.9,38.6,29.73,SSE,148,10.0,14.0,95,0.14,,,0.58,Wunderground v.1.15,2013-02-10 15:49:00,
2013-02-10 09:51:00,40.0,38.7,29.72,ESE,117,10.0,11.0,95,0.09,,,0.58,Wunderground v.1.15,2013-02-10 15:51:00,
2013-02-10 09:52:00,40.0,39.0,29.72,SE,145,10.0,16.0,96,0.08,,,0.58,Wunderground v.1.15,2013-02-10 15:52:00,
2013-02-10 09:55:00,40.2,39.2,29.72,SE,131,10.0,16.0,96,0.07,,,0.59,Wunderground v.1.15,2013-02-10 15:55:00,
2013-02-10 09:57:00,40.3,39.3,29.72,South,179,11.0,16.0,96,0.07,,,0.59,Wunderground v.1.15,2013-02-10 15:57:00,
2013-02-10 09:58:00,40.3,39.3,29.72,SSE,148,11.0,16.0,96,0.07,,,0.59,Wunderground v.1.15,2013-02-10 15:58:00,
2013-02-10 09:59:00,40.4,39.4,29.71,SE,134,11.0,16.0,96,0.07,,,0.59,Wunderground v.1.15,2013-02-10 15:59:00,
2013-02-10 10:00:00,40.4,39.4,29.72,SE,129,11.0,11.0,96,0.07,,,0.59,Wunderground v.1.15,2013-02-10 16:00:00,
2013-02-10 10:03:00,40.5,39.4,29.72,SE,143,10.0,12.0,96,0.06,,,0.59,Wunderground v.1.15,2013-02-10 16:03:00,
2013-02-10 10:05:00,40.6,39.5,29.71,SE,141,10.0,12.0,96,0.05,,,0.59,Wunderground v.1.15,2013-02-10 16:05:00,
2013-02-10 10:07:00,40.7,39.6,29.70,SE,141,10.0,12.0,96,0.04,,,0.59,Wunderground v.1.15,2013-02-10 16:07:00,
2013-02-10 10:08:00,40.7,39.6,29.70,SE,141,10.0,12.0,96,0.04,,,0.59,Wunderground v.1.15,2013-02-10 16:08:00,
2013-02-10 10:09:00,40.8,39.7,29.71,SE,132,10.0,12.0,96,0.04,,,0.59,Wunderground v.1.15,2013-02-10 16:09:00,
2013-02-10 10:12:00,40.9,39.8,29.70,ESE,123,11.0,13.0,96,0.00,,,0.59,Wunderground v.1.15,2013-02-10 16:12:00,
2013-02-10 10:14:00,41.0,39.9,29.70,SE,145,12.0,18.0,96,0.00,,,0.59,Wunderground v.1.15,2013-02-10 16:14:00,
2013-02-10 10:15:00,41.1,40.0,29.70,ESE,110,12.0,18.0,96,0.00,,,0.59,Wunderground v.1.15,2013-02-10 16:15:00,
2013-02-10 10:16:00,41.1,40.0,29.70,SSE,150,12.0,18.0,96,0.00,,,0.59,Wunderground v.1.15,2013-02-10 16:16:00,
2013-02-10 10:17:00,41.2,40.1,29.70,SE,136,13.0,18.0,96,0.00,,,0.59,Wunderground v.1.15,2013-02-10 16:17:00,
2013-02-10 10:20:00,41.2,40.1,29.69,ESE,122,13.0,13.0,96,0.00,,,0.59,Wunderground v.1.15,2013-02-10 16:20:00,
2013-02-10 10:21:00,41.3,40.2,29.69,SE,143,13.0,14.0,96,0.00,,,0.59,Wunderground v.1.15,2013-02-10 16:21:00,
2013-02-10 10:22:00,41.3,40.2,29.69,ESE,119,13.0,14.0,96,0.00,,,0.59,Wunderground v.1.15,2013-02-10 16:22:00,
2013-02-10 10:26:00,41.5,40.7,29.69,SE,133,12.0,14.0,97,0.00,,,0.59,Wunderground v.1.15,2013-02-10 16:26:00,
2013-02-10 10:28:00,41.6,40.8,29.68,SSE,150,12.0,14.0,97,0.00,,,0.59,Wunderground v.1.15,2013-02-10 16:28:00,
2013-02-10 10:29:00,41.7,40.9,29.68,SE,128,12.0,14.0,97,0.00,,,0.59,Wunderground v.1.15,2013-02-10 16:29:00,
2013-02-10 10:30:00,41.7,40.9,29.68,SSE,165,12.0,17.0,97,0.00,,,0.59,Wunderground v.1.15,2013-02-10 16:30:00,
2013-02-10 10:33:00,41.9,41.1,29.68,South,174,13.0,17.0,97,0.00,,,0.59,Wunderground v.1.15,2013-02-10 16:33:00,
2013-02-10 10:34:00,41.9,41.1,29.68,ESE,120,13.0,17.0,97,0.00,,,0.59,Wunderground v.1.15,2013-02-10 16:34:00,
2013-02-10 10:35:00,41.9,41.1,29.68,SSE,150,13.0,17.0,97,0.00,,,0.59,Wunderground v.1.15,2013-02-10 16:35:00,
2013-02-10 10:36:00,41.9,41.1,29.68,SE,130,13.0,17.0,97,0.00,,,0.59,Wunderground v.1.15,2013-02-10 16:36:00,
2013-02-10 10:39:00,42.0,41.2,29.68,SSE,153,13.0,18.0,97,0.00,,,0.59,Wunderground v.1.15,2013-02-10 16:39:00,
2013-02-10 10:40:00,42.0,41.2,29.68,SE,134,13.0,14.0,97,0.00,,,0.59,Wunderground v.1.15,2013-02-10 16:40:00,
2013-02-10 10:42:00,42.2,41.4,29.67,ESE,120,13.0,18.0,97,0.00,,,0.59,Wunderground v.1.15,2013-02-10 16:42:00,
2013-02-10 10:45:00,42.3,41.5,29.68,ESE,123,14.0,18.0,97,0.00,,,0.59,Wunderground v.1.15,2013-02-10 16:45:00,
2013-02-10 10:46:00,42.3,41.5,29.67,SE,126,14.0,18.0,97,0.00,,,0.59,Wunderground v.1.15,2013-02-10 16:46:00,
2013-02-10 10:47:00,42.3,41.2,29.67,ESE,103,14.0,18.0,96,0.00,,,0.59,Wunderground v.1.15,2013-02-10 16:47:00,
2013-02-10 10:49:00,42.4,41.3,29.67,SE,134,14.0,18.0,96,0.00,,,0.59,Wunderground v.1.15,2013-02-10 16:49:00,
2013-02-10 10:50:00,42.5,41.4,29.67,ESE,120,14.0,20.0,96,0.00,,,0.59,Wunderground v.1.15,2013-02-10 16:50:00,
2013-02-10 10:51:00,42.5,41.4,29.67,South,179,14.0,20.0,96,0.00,,,0.59,Wunderground v.1.15,2013-02-10 16:51:00,
2013-02-10 10:54:00,42.6,41.5,29.67,SE,142,14.0,20.0,96,0.00,,,0.59,Wunderground v.1.15,2013-02-10 16:54:00,
2013-02-10 10:55:00,42.7,41.6,29.67,SE,134,14.0,20.0,96,0.00,,,0.59,Wunderground v.1.15,2013-02-10 16:55:00,
2013-02-10 10:56:00,42.7,41.6,29.67,South,190,14.0,20.0,96,0.00,,,0.59,Wunderground v.1.15,2013-02-10 16:56:00,
2013-02-10 10:59:00,42.7,41.6,29.67,SSE,162,14.0,20.0,96,0.00,,,0.59,Wunderground v.1.15,2013-02-10 16:59:00,
2013-02-10 11:00:00,42.7,41.6,29.67,SSE,162,14.0,14.0,96,0.00,,,0.59,Wunderground v.1.15,2013-02-10 17:00:00,
2013-02-10 11:02:00,42.8,41.7,29.66,ESE,122,14.0,15.0,96,0.00,,,0.59,Wunderground v.1.15,2013-02-10 17:02:00,
2013-02-10 11:05:00,42.8,41.7,29.66,SSE,152,13.0,18.0,96,0.00,,,0.59,Wunderground v.1.15,2013-02-10 17:05:00,
2013-02-10 11:06:00,42.8,41.7,29.65,ESE,123,13.0,18.0,96,0.00,,,0.59,Wunderground v.1.15,2013-02-10 17:06:00,
2013-02-10 11:07:00,42.8,41.7,29.65,SSE,154,13.0,18.0,96,0.00,,,0.59,Wunderground v.1.15,2013-02-10 17:07:00,
2013-02-10 11:09:00,42.8,41.7,29.66,SSE,150,13.0,18.0,96,0.00,,,0.60,Wunderground v.1.15,2013-02-10 17:09:00,
2013-02-10 11:14:00,42.9,41.8,29.65,SSE,162,13.0,17.0,96,0.00,,,0.60,Wunderground v.1.15,2013-02-10 17:14:00,
2013-02-10 11:15:00,42.9,41.8,29.65,SE,141,14.0,17.0,96,0.00,,,0.60,Wunderground v.1.15,2013-02-10 17:15:00,
2013-02-10 11:17:00,42.9,41.8,29.65,SSE,155,13.0,17.0,96,0.07,,,0.61,Wunderground v.1.15,2013-02-10 17:17:00,
2013-02-10 11:20:00,43.0,41.9,29.65,SE,145,14.0,15.0,96,0.07,,,0.61,Wunderground v.1.15,2013-02-10 17:20:00,
2013-02-10 11:24:00,43.0,41.7,29.64,SSE,157,14.0,21.0,95,0.07,,,0.61,Wunderground v.1.15,2013-02-10 17:24:00,
2013-02-10 11:25:00,43.0,41.7,29.64,SE,141,14.0,21.0,95,0.07,,,0.61,Wunderground v.1.15,2013-02-10 17:25:00,
2013-02-10 11:26:00,43.1,41.8,29.64,South,169,14.0,21.0,95,0.06,,,0.61,Wunderground v.1.15,2013-02-10 17:26:00,
2013-02-10 11:27:00,43.1,41.8,29.64,SSE,150,14.0,21.0,95,0.06,,,0.61,Wunderground v.1.15,2013-02-10 17:27:00,
2013-02-10 11:29:00,43.1,41.8,29.64,South,175,13.0,21.0,95,0.05,,,0.61,Wunderground v.1.15,2013-02-10 17:29:00,
2013-02-10 11:31:00,43.1,41.8,29.63,SSE,165,13.0,16.0,95,0.04,,,0.61,Wunderground v.1.15,2013-02-10 17:31:00,
2013-02-10 11:33:00,43.1,41.8,29.63,SSE,160,13.0,16.0,95,0.04,,,0.61,Wunderground v.1.15,2013-02-10 17:33:00,
2013-02-10 11:34:00,43.2,41.9,29.63,SE,145,13.0,16.0,95,0.00,,,0.61,Wunderground v.1.15,2013-02-10 17:34:00,
2013-02-10 11:37:00,43.2,41.9,29.62,SSE,163,14.0,16.0,95,0.00,,,0.61,Wunderground v.1.15,2013-02-10 17:37:00,
2013-02-10 11:38:00,43.2,41.9,29.63,SE,140,13.0,16.0,95,0.00,,,0.61,Wunderground v.1.15,2013-02-10 17:38:00,
2013-02-10 11:39:00,43.2,41.9,29.63,South,169,13.0,16.0,95,0.00,,,0.61,Wunderground v.1.15,2013-02-10 17:39:00,
2013-02-10 11:41:00,43.3,42.0,29.62,SE,143,14.0,20.0,95,0.00,,,0.61,Wunderground v.1.15,2013-02-10 17:41:00,
2013-02-10 11:42:00,43.3,42.0,29.62,South,172,14.0,20.0,95,0.00,,,0.61,Wunderground v.1.15,2013-02-10 17:42:00,
2013-02-10 11:43:00,43.4,42.1,29.62,South,191,15.0,20.0,95,0.00,,,0.62,Wunderground v.1.15,2013-02-10 17:43:00,
2013-02-10 11:44:00,43.4,42.1,29.62,SE,145,15.0,20.0,95,0.00,,,0.62,Wunderground v.1.15,2013-02-10 17:44:00,
2013-02-10 11:48:00,43.5,42.2,29.62,SSE,162,15.0,20.0,95,0.00,,,0.62,Wunderground v.1.15,2013-02-10 17:48:00,
2013-02-10 11:49:00,43.5,42.2,29.61,ESE,118,16.0,20.0,95,0.00,,,0.62,Wunderground v.1.15,2013-02-10 17:49:00,
2013-02-10 11:51:00,43.5,42.2,29.61,SSE,156,16.0,16.0,95,0.00,,,0.62,Wunderground v.1.15,2013-02-10 17:51:00,
2013-02-10 11:53:00,43.6,42.3,29.61,SE,132,15.0,20.0,95,0.00,,,0.62,Wunderground v.1.15,2013-02-10 17:53:00,
2013-02-10 11:54:00,43.6,42.3,29.61,ESE,123,15.0,20.0,95,0.00,,,0.62,Wunderground v.1.15,2013-02-10 17:54:00,
2013-02-10 11:55:00,43.6,42.3,29.61,SSE,148,15.0,23.0,95,0.00,,,0.62,Wunderground v.1.15,2013-02-10 17:55:00,
2013-02-10 11:56:00,43.6,42.3,29.61,South,188,16.0,23.0,95,0.00,,,0.62,Wunderground v.1.15,2013-02-10 17:56:00,
2013-02-10 11:58:00,43.7,42.4,29.60,ESE,120,16.0,23.0,95,0.00,,,0.62,Wunderground v.1.15,2013-02-10 17:58:00,
2013-02-10 12:01:00,43.7,42.4,29.60,SE,133,15.0,18.0,95,0.00,,,0.62,Wunderground v.1.15,2013-02-10 18:01:00,
2013-02-10 12:02:00,43.7,42.4,29.60,SE,138,15.0,18.0,95,0.00,,,0.62,Wunderground v.1.15,2013-02-10 18:02:00,
2013-02-10 12:03:00,43.8,42.5,29.60,SSE,160,15.0,18.0,95,0.00,,,0.62,Wunderground v.1.15,2013-02-10 18:03:00,
2013-02-10 12:06:00,43.8,42.5,29.59,SSE,155,16.0,18.0,95,0.00,,,0.62,Wunderground v.1.15,2013-02-10 18:06:00,
2013-02-10 12:07:00,43.9,42.6,29.59,South,185,16.0,18.0,95,0.00,,,0.62,Wunderground v.1.15,2013-02-10 18:07:00,
2013-02-10 12:08:00,43.8,42.5,29.60,South,179,16.0,21.0,95,0.00,,,0.62,Wunderground v.1.15,2013-02-10 18:08:00,
2013-02-10 12:09:00,43.9,42.6,29.59,SSE,153,16.0,21.0,95,0.00,,,0.62,Wunderground v.1.15,2013-02-10 18:09:00,
2013-02-10 12:13:00,43.9,42.6,29.59,SE,137,16.0,20.0,95,0.00,,,0.62,Wunderground v.1.15,2013-02-10 18:13:00,
2013-02-10 12:14:00,43.9,42.6,29.59,SSE,158,17.0,20.0,95,0.00,,,0.63,Wunderground v.1.15,2013-02-10 18:14:00,
2013-02-10 12:16:00,43.9,42.6,29.59,SSE,150,17.0,20.0,95,0.00,,,0.63,Wunderground v.1.15,2013-02-10 18:16:00,
2013-02-10 12:18:00,43.9,42.6,29.58,SE,139,17.0,20.0,95,0.00,,,0.63,Wunderground v.1.15,2013-02-10 18:18:00,
2013-02-10 12:22:00,44.0,42.7,29.58,ESE,115,16.0,19.0,95,0.00,,,0.63,Wunderground v.1.15,2013-02-10 18:22:00,
2013-02-10 12:23:00,44.0,42.7,29.58,SE,141,16.0,19.0,95,0.00,,,0.63,Wunderground v.1.15,2013-02-10 18:23:00,
2013-02-10 12:24:00,44.1,42.8,29.58,SE,142,16.0,19.0,95,0.00,,,0.63,Wunderground v.1.15,2013-02-10 18:24:00,
2013-02-10 12:27:00,44.2,42.9,29.58,SSE,149,15.0,23.0,95,0.00,,,0.63,Wunderground v.1.15,2013-02-10 18:27:00,
2013-02-10 12:28:00,44.2,42.9,29.58,East,100,15.0,23.0,95,0.00,,,0.63,Wunderground v.1.15,2013-02-10 18:28:00,
2013-02-10 12:29:00,44.2,42.6,29.58,SE,127,15.0,23.0,94,0.00,,,0.63,Wunderground v.1.15,2013-02-10 18:29:00,
2013-02-10 12:33:00,44.3,42.7,29.58,South,174,16.0,23.0,94,0.00,,,0.63,Wunderground v.1.15,2013-02-10 18:33:00,
2013-02-10 12:34:00,44.3,42.7,29.58,South,190,16.0,23.0,94,0.00,,,0.63,Wunderground v.1.15,2013-02-10 18:34:00,
2013-02-10 12:36:00,44.4,42.8,29.58,SE,145,15.0,23.0,94,0.00,,,0.63,Wunderground v.1.15,2013-02-10 18:36:00,
2013-02-10 12:37:00,44.4,42.8,29.59,SSE,162,15.0,23.0,94,0.00,,,0.63,Wunderground v.1.15,2013-02-10 18:37:00,
2013-02-10 12:38:00,44.4,42.8,29.58,SE,133,15.0,23.0,94,0.00,,,0.63,Wunderground v.1.15,2013-02-10 18:38:00,
2013-02-10 12:40:00,44.4,42.8,29.59,SSE,164,15.0,15.0,94,0.00,,,0.63,Wunderground v.1.15,2013-02-10 18:40:00,
2013-02-10 12:41:00,44.4,42.8,29.59,SE,136,15.0,15.0,94,0.00,,,0.63,Wunderground v.1.15,2013-02-10 18:41:00,
2013-02-10 12:43:00,44.5,42.9,29.58,SE,136,15.0,16.0,94,0.00,,,0.63,Wunderground v.1.15,2013-02-10 18:43:00,
2013-02-10 12:46:00,44.5,42.9,29.58,SSE,158,16.0,17.0,94,0.00,,,0.63,Wunderground v.1.15,2013-02-10 18:46:00,
2013-02-10 12:48:00,44.5,42.9,29.58,SSE,162,15.0,17.0,94,0.00,,,0.63,Wunderground v.1.15,2013-02-10 18:48:00,
2013-02-10 12:50:00,44.5,42.9,29.58,SSE,166,15.0,15.0,94,0.00,,,0.63,Wunderground v.1.15,2013-02-10 18:50:00,
2013-02-10 12:51:00,44.5,42.9,29.58,SSE,151,15.0,15.0,94,0.00,,,0.63,Wunderground v.1.15,2013-02-10 18:51:00,
2013-02-10 12:54:00,44.5,42.9,29.57,SSE,154,13.0,15.0,94,0.00,,,0.63,Wunderground v.1.15,2013-02-10 18:54:00,
2013-02-10 12:55:00,44.6,43.0,29.57,SE,124,13.0,15.0,94,0.00,,,0.63,Wunderground v.1.15,2013-02-10 18:55:00,
2013-02-10 13:00:00,44.7,43.1,29.56,SSE,159,14.0,20.0,94,0.00,,,0.63,Wunderground v.1.15,2013-02-10 19:00:00,
2013-02-10 13:01:00,44.7,43.1,29.56,SE,145,14.0,20.0,94,0.00,,,0.63,Wunderground v.1.15,2013-02-10 19:01:00,
2013-02-10 13:03:00,44.7,43.1,29.56,SSE,158,14.0,20.0,94,0.00,,,0.63,Wunderground v.1.15,2013-02-10 19:03:00,
2013-02-10 13:04:00,44.7,43.1,29.56,SSE,167,14.0,20.0,94,0.00,,,0.63,Wunderground v.1.15,2013-02-10 19:04:00,
2013-02-10 13:08:00,44.8,43.2,29.56,South,184,14.0,20.0,94,0.00,,,0.63,Wunderground v.1.15,2013-02-10 19:08:00,
2013-02-10 13:09:00,44.8,43.2,29.56,SE,145,14.0,20.0,94,0.00,,,0.63,Wunderground v.1.15,2013-02-10 19:09:00,
2013-02-10 13:10:00,44.8,43.2,29.56,SE,142,13.0,14.0,94,0.00,,,0.63,Wunderground v.1.15,2013-02-10 19:10:00,
2013-02-10 13:14:00,44.8,43.2,29.56,SSE,159,13.0,14.0,94,0.00,,,0.63,Wunderground v.1.15,2013-02-10 19:14:00,
2013-02-10 13:15:00,44.9,43.3,29.56,SSE,165,13.0,14.0,94,0.00,,,0.63,Wunderground v.1.15,2013-02-10 19:15:00,
2013-02-10 13:16:00,44.9,43.3,29.56,SSE,148,13.0,14.0,94,0.00,,,0.63,Wunderground v.1.15,2013-02-10 19:16:00,
2013-02-10 13:19:00,44.9,43.3,29.55,ESE,110,13.0,14.0,94,0.00,,,0.63,Wunderground v.1.15,2013-02-10 19:19:00,
2013-02-10 13:21:00,45.0,43.4,29.55,SE,141,13.0,17.0,94,0.00,,,0.63,Wunderground v.1.15,2013-02-10 19:21:00,
2013-02-10 13:22:00,45.0,43.4,29.55,SSE,148,13.0,17.0,94,0.00,,,0.63,Wunderground v.1.15,2013-02-10 19:22:00,
2013-02-10 13:26:00,45.1,43.5,29.55,SE,139,13.0,17.0,94,0.00,,,0.63,Wunderground v.1.15,2013-02-10 19:26:00,
2013-02-10 13:27:00,45.2,43.6,29.55,South,187,13.0,17.0,94,0.00,,,0.63,Wunderground v.1.15,2013-02-10 19:27:00,
2013-02-10 13:28:00,45.2,43.6,29.54,SE,142,13.0,17.0,94,0.00,,,0.63,Wunderground v.1.15,2013-02-10 19:28:00,
2013-02-10 13:29:00,45.2,43.6,29.54,SSE,162,13.0,17.0,94,0.00,,,0.63,Wunderground v.1.15,2013-02-10 19:29:00,
2013-02-10 13:31:00,45.3,44.0,29.54,SE,143,13.0,23.0,95,0.00,,,0.63,Wunderground v.1.15,2013-02-10 19:31:00,
2013-02-10 13:32:00,45.3,44.0,29.54,SSE,152,13.0,23.0,95,0.00,,,0.63,Wunderground v.1.15,2013-02-10 19:32:00,
2013-02-10 13:33:00,45.3,43.7,29.54,SE,143,13.0,24.0,94,0.00,,,0.63,Wunderground v.1.15,2013-02-10 19:33:00,
2013-02-10 13:35:00,45.4,43.8,29.54,South,172,14.0,24.0,94,0.00,,,0.63,Wunderground v.1.15,2013-02-10 19:35:00,
2013-02-10 13:36:00,45.5,43.9,29.54,ESE,120,14.0,24.0,94,0.00,,,0.63,Wunderground v.1.15,2013-02-10 19:36:00,
2013-02-10 13:37:00,45.5,43.9,29.54,South,170,14.0,24.0,94,0.00,,,0.63,Wunderground v.1.15,2013-02-10 19:37:00,
2013-02-10 13:40:00,45.6,44.0,29.54,SSE,155,14.0,14.0,94,0.00,,,0.63,Wunderground v.1.15,2013-02-10 19:40:00,
2013-02-10 13:41:00,45.6,44.0,29.54,South,171,14.0,15.0,94,0.00,,,0.63,Wunderground v.1.15,2013-02-10 19:41:00,
2013-02-10 13:43:00,45.6,44.0,29.54,SSE,155,14.0,15.0,94,0.00,,,0.63,Wunderground v.1.15,2013-02-10 19:43:00,
2013-02-10 13:46:00,45.7,44.1,29.54,SE,145,14.0,17.0,94,0.00,,,0.63,Wunderground v.1.15,2013-02-10 19:46:00,
2013-02-10 13:47:00,45.7,44.1,29.54,SE,145,14.0,17.0,94,0.00,,,0.63,Wunderground v.1.15,2013-02-10 19:47:00,
2013-02-10 13:48:00,45.7,44.1,29.54,SE,141,14.0,17.0,94,0.00,,,0.63,Wunderground v.1.15,2013-02-10 19:48:00,
2013-02-10 13:52:00,45.7,44.4,29.53,SSE,151,14.0,14.0,95,0.00,,,0.63,Wunderground v.1.15,2013-02-10 19:52:00,
2013-02-10 13:53:00,45.8,44.2,29.53,SSE,164,13.0,14.0,94,0.00,,,0.63,Wunderground v.1.15,2013-02-10 19:53:00,
2013-02-10 13:57:00,46.0,44.6,29.53,SE,146,14.0,18.0,95,0.00,,,0.63,Wunderground v.1.15,2013-02-10 19:57:00,
2013-02-10 14:00:00,46.1,44.7,29.53,South,169,13.0,13.0,95,0.00,,,0.63,Wunderground v.1.15,2013-02-10 20:00:00,
2013-02-10 14:01:00,46.1,44.7,29.53,SSE,153,13.0,13.0,95,0.00,,,0.63,Wunderground v.1.15,2013-02-10 20:01:00,
2013-02-10 14:03:00,46.2,44.8,29.53,SSW,200,13.0,14.0,95,0.00,,,0.63,Wunderground v.1.15,2013-02-10 20:03:00,
2013-02-10 14:04:00,46.3,44.9,29.53,SSE,162,13.0,14.0,95,0.00,,,0.63,Wunderground v.1.15,2013-02-10 20:04:00,
2013-02-10 14:07:00,46.3,44.9,29.52,SSE,166,13.0,18.0,95,0.00,,,0.63,Wunderground v.1.15,2013-02-10 20:07:00,
2013-02-10 14:09:00,46.4,45.0,29.52,SSE,155,13.0,18.0,95,0.00,,,0.63,Wunderground v.1.15,2013-02-10 20:09:00,
2013-02-10 14:10:00,46.4,45.0,29.53,South,170,13.0,18.0,95,0.00,,,0.63,Wunderground v.1.15,2013-02-10 20:10:00,
2013-02-10 14:14:00,46.5,45.1,29.52,SSE,156,13.0,19.0,95,0.00,,,0.63,Wunderground v.1.15,2013-02-10 20:14:00,
2013-02-10 14:16:00,46.5,45.1,29.52,SSE,153,13.0,19.0,95,0.00,,,0.63,Wunderground v.1.15,2013-02-10 20:16:00,
2013-02-10 14:17:00,46.5,45.1,29.52,SE,141,13.0,19.0,95,0.00,,,0.63,Wunderground v.1.15,2013-02-10 20:17:00,
2013-02-10 14:19:00,46.5,45.1,29.52,SE,130,13.0,19.0,95,0.00,,,0.63,Wunderground v.1.15,2013-02-10 20:19:00,
2013-02-10 14:21:00,46.5,45.1,29.52,SSE,155,13.0,13.0,95,0.00,,,0.63,Wunderground v.1.15,2013-02-10 20:21:00,
2013-02-10 14:22:00,46.5,45.1,29.52,SE,145,13.0,13.0,95,0.00,,,0.63,Wunderground v.1.15,2013-02-10 20:22:00,
2013-02-10 14:24:00,46.5,45.1,29.52,SSE,153,13.0,14.0,95,0.00,,,0.63,Wunderground v.1.15,2013-02-10 20:24:00,
2013-02-10 14:26:00,46.5,45.1,29.52,SSE,164,13.0,18.0,95,0.00,,,0.63,Wunderground v.1.15,2013-02-10 20:26:00,
2013-02-10 14:27:00,46.6,45.2,29.52,SSE,149,13.0,18.0,95,0.00,,,0.63,Wunderground v.1.15,2013-02-10 20:27:00,
2013-02-10 14:28:00,46.6,45.2,29.52,SSE,153,13.0,18.0,95,0.00,,,0.63,Wunderground v.1.15,2013-02-10 20:28:00,
2013-02-10 14:29:00,46.6,45.2,29.52,SSW,202,13.0,18.0,95,0.00,,,0.63,Wunderground v.1.15,2013-02-10 20:29:00,
2013-02-10 14:31:00,46.6,45.2,29.52,SSE,164,14.0,19.0,95,0.00,,,0.63,Wunderground v.1.15,2013-02-10 20:31:00,
2013-02-10 14:32:00,46.6,45.2,29.52,SSE,162,14.0,19.0,95,0.00,,,0.63,Wunderground v.1.15,2013-02-10 20:32:00,
2013-02-10 14:36:00,46.6,45.2,29.52,SSE,162,14.0,23.0,95,0.00,,,0.63,Wunderground v.1.15,2013-02-10 20:36:00,
2013-02-10 14:37:00,46.6,45.2,29.52,SSE,153,14.0,23.0,95,0.00,,,0.63,Wunderground v.1.15,2013-02-10 20:37:00,
2013-02-10 14:38:00,46.7,45.3,29.52,SE,130,14.0,23.0,95,0.00,,,0.63,Wunderground v.1.15,2013-02-10 20:38:00,
2013-02-10 14:41:00,46.6,45.2,29.52,SSE,165,13.0,14.0,95,0.00,,,0.63,Wunderground v.1.15,2013-02-10 20:41:00,
2013-02-10 14:43:00,46.6,45.2,29.52,SSE,160,13.0,23.0,95,0.00,,,0.63,Wunderground v.1.15,2013-02-10 20:43:00,
2013-02-10 14:44:00,46.6,45.2,29.52,South,173,13.0,23.0,95,0.00,,,0.63,Wunderground v.1.15,2013-02-10 20:44:00,
2013-02-10 14:46:00,46.7,45.3,29.52,South,191,13.0,23.0,95,0.00,,,0.63,Wunderground v.1.15,2013-02-10 20:46:00,
2013-02-10 14:48:00,46.7,45.3,29.52,SSE,166,13.0,23.0,95,0.00,,,0.63,Wunderground v.1.15,2013-02-10 20:48:00,
2013-02-10 14:49:00,46.7,45.3,29.52,SSE,153,13.0,23.0,95,0.00,,,0.63,Wunderground v.1.15,2013-02-10 20:49:00,
2013-02-10 14:51:00,46.7,45.3,29.52,SSE,162,13.0,17.0,95,0.00,,,0.63,Wunderground v.1.15,2013-02-10 20:51:00,
2013-02-10 14:53:00,46.7,45.3,29.52,SSE,155,13.0,17.0,95,0.00,,,0.63,Wunderground v.1.15,2013-02-10 20:53:00,
2013-02-10 14:56:00,46.8,45.4,29.52,SSE,150,14.0,21.0,95,0.00,,,0.63,Wunderground v.1.15,2013-02-10 20:56:00,
2013-02-10 14:58:00,46.8,45.4,29.51,SSW,197,15.0,21.0,95,0.00,,,0.63,Wunderground v.1.15,2013-02-10 20:58:00,
2013-02-10 14:59:00,46.8,45.4,29.51,SSE,162,15.0,21.0,95,0.00,,,0.63,Wunderground v.1.15,2013-02-10 20:59:00,
2013-02-10 15:02:00,46.8,45.7,29.51,SSE,153,15.0,22.0,96,0.00,,,0.63,Wunderground v.1.15,2013-02-10 21:02:00,
2013-02-10 15:04:00,46.8,45.7,29.50,SE,131,15.0,22.0,96,0.00,,,0.63,Wunderground v.1.15,2013-02-10 21:04:00,
2013-02-10 15:06:00,46.8,45.7,29.50,SSE,166,15.0,22.0,96,0.00,,,0.63,Wunderground v.1.15,2013-02-10 21:06:00,
2013-02-10 15:07:00,46.8,45.7,29.50,SSE,160,15.0,22.0,96,0.00,,,0.63,Wunderground v.1.15,2013-02-10 21:07:00,
2013-02-10 15:09:00,46.8,46.0,29.50,South,169,15.0,22.0,97,0.00,,,0.63,Wunderground v.1.15,2013-02-10 21:09:00,
2013-02-10 15:12:00,46.7,45.9,29.50,SSE,164,15.0,19.0,97,0.00,,,0.63,Wunderground v.1.15,2013-02-10 21:12:00,
2013-02-10 15:14:00,46.7,45.9,29.50,SE,140,15.0,19.0,97,0.00,,,0.63,Wunderground v.1.15,2013-02-10 21:14:00,
2013-02-10 15:15:00,46.7,45.9,29.50,SSE,155,15.0,19.0,97,0.00,,,0.63,Wunderground v.1.15,2013-02-10 21:15:00,
2013-02-10 15:17:00,46.8,46.0,29.50,South,184,15.0,19.0,97,0.00,,,0.63,Wunderground v.1.15,2013-02-10 21:17:00,
2013-02-10 15:19:00,46.7,45.9,29.50,SE,144,14.0,19.0,97,0.00,,,0.63,Wunderground v.1.15,2013-02-10 21:19:00,
2013-02-10 15:21:00,46.7,45.9,29.50,SSE,155,14.0,18.0,97,0.00,,,0.63,Wunderground v.1.15,2013-02-10 21:21:00,
2013-02-10 15:22:00,46.7,45.9,29.50,SSE,166,15.0,18.0,97,0.00,,,0.63,Wunderground v.1.15,2013-02-10 21:22:00,
2013-02-10 15:26:00,46.7,45.9,29.50,SSE,154,15.0,18.0,97,0.00,,,0.63,Wunderground v.1.15,2013-02-10 21:26:00,
2013-02-10 15:27:00,46.7,45.9,29.50,SSE,148,15.0,18.0,97,0.00,,,0.63,Wunderground v.1.15,2013-02-10 21:27:00,
2013-02-10 15:28:00,46.7,45.9,29.50,SSE,156,15.0,18.0,97,0.00,,,0.63,Wunderground v.1.15,2013-02-10 21:28:00,
2013-02-10 15:31:00,46.7,45.9,29.50,SSE,155,15.0,19.0,97,0.00,,,0.63,Wunderground v.1.15,2013-02-10 21:31:00,
2013-02-10 15:33:00,46.7,45.9,29.50,SE,130,15.0,19.0,97,0.00,,,0.63,Wunderground v.1.15,2013-02-10 21:33:00,
2013-02-10 15:35:00,46.7,45.9,29.50,SE,139,16.0,19.0,97,0.00,,,0.63,Wunderground v.1.15,2013-02-10 21:35:00,
2013-02-10 15:36:00,46.7,45.9,29.49,South,183,15.0,19.0,97,0.00,,,0.63,Wunderground v.1.15,2013-02-10 21:36:00,
2013-02-10 15:38:00,46.8,46.0,29.50,SE,145,15.0,19.0,97,0.00,,,0.63,Wunderground v.1.15,2013-02-10 21:38:00,
2013-02-10 15:41:00,46.7,45.9,29.50,SSE,160,15.0,16.0,97,0.00,,,0.63,Wunderground v.1.15,2013-02-10 21:41:00,
2013-02-10 15:43:00,46.7,45.9,29.50,SSE,158,14.0,16.0,97,0.00,,,0.63,Wunderground v.1.15,2013-02-10 21:43:00,
2013-02-10 15:45:00,46.7,45.9,29.50,SSE,153,14.0,17.0,97,0.00,,,0.63,Wunderground v.1.15,2013-02-10 21:45:00,
2013-02-10 15:48:00,46.8,46.0,29.49,SSE,155,14.0,20.0,97,0.00,,,0.63,Wunderground v.1.15,2013-02-10 21:48:00,
2013-02-10 15:50:00,46.8,46.0,29.49,South,175,14.0,15.0,97,0.00,,,0.63,Wunderground v.1.15,2013-02-10 21:50:00,
2013-02-10 15:52:00,46.8,46.0,29.49,South,172,15.0,16.0,97,0.00,,,0.63,Wunderground v.1.15,2013-02-10 21:52:00,
2013-02-10 15:53:00,46.8,46.0,29.49,SE,136,15.0,25.0,97,0.00,,,0.63,Wunderground v.1.15,2013-02-10 21:53:00,
2013-02-10 15:55:00,46.9,46.4,29.48,SSE,153,16.0,27.0,98,0.00,,,0.63,Wunderground v.1.15,2013-02-10 21:55:00,
2013-02-10 15:57:00,46.9,46.4,29.48,SSE,155,17.0,27.0,98,0.00,,,0.63,Wunderground v.1.15,2013-02-10 21:57:00,
2013-02-10 15:58:00,46.9,46.4,29.48,SSE,166,17.0,27.0,98,0.00,,,0.63,Wunderground v.1.15,2013-02-10 21:58:00,
2013-02-10 16:00:00,46.9,46.4,29.48,SSE,166,17.0,17.0,98,0.00,,,0.63,Wunderground v.1.15,2013-02-10 22:00:00,
2013-02-10 16:02:00,46.9,46.4,29.48,SSE,153,16.0,17.0,98,0.00,,,0.63,Wunderground v.1.15,2013-02-10 22:02:00,
2013-02-10 16:05:00,46.9,46.4,29.48,SSE,151,15.0,18.0,98,0.00,,,0.63,Wunderground v.1.15,2013-02-10 22:05:00,
2013-02-10 16:07:00,46.9,46.4,29.48,SSE,166,15.0,21.0,98,0.00,,,0.63,Wunderground v.1.15,2013-02-10 22:07:00,
2013-02-10 16:08:00,46.9,46.4,29.48,SSE,156,15.0,21.0,98,0.00,,,0.63,Wunderground v.1.15,2013-02-10 22:08:00,
2013-02-10 16:11:00,46.9,46.4,29.48,South,172,14.0,16.0,98,0.00,,,0.63,Wunderground v.1.15,2013-02-10 22:11:00,
2013-02-10 16:13:00,47.0,46.5,29.48,SSE,165,15.0,17.0,98,0.00,,,0.63,Wunderground v.1.15,2013-02-10 22:13:00,
2013-02-10 16:15:00,47.0,46.5,29.48,ESE,120,15.0,17.0,98,0.00,,,0.63,Wunderground v.1.15,2013-02-10 22:15:00,
2013-02-10 16:16:00,47.0,46.5,29.48,South,172,14.0,22.0,98,0.00,,,0.63,Wunderground v.1.15,2013-02-10 22:16:00,
2013-02-10 16:17:00,47.1,46.6,29.48,SE,136,14.0,22.0,98,0.00,,,0.63,Wunderground v.1.15,2013-02-10 22:17:00,
2013-02-10 16:22:00,47.2,46.7,29.48,South,171,15.0,16.0,98,0.00,,,0.63,Wunderground v.1.15,2013-02-10 22:22:00,
2013-02-10 16:24:00,47.2,46.7,29.48,South,169,16.0,16.0,98,0.00,,,0.63,Wunderground v.1.15,2013-02-10 22:24:00,
2013-02-10 16:26:00,47.2,46.7,29.48,SSE,160,16.0,20.0,98,0.00,,,0.63,Wunderground v.1.15,2013-02-10 22:26:00,
2013-02-10 16:29:00,47.2,46.7,29.48,SSE,151,15.0,21.0,98,0.00,,,0.63,Wunderground v.1.15,2013-02-10 22:29:00,
2013-02-10 16:30:00,47.2,46.7,29.48,SSE,148,15.0,16.0,98,0.00,,,0.63,Wunderground v.1.15,2013-02-10 22:30:00,
2013-02-10 16:32:00,47.3,46.8,29.48,SSE,165,16.0,19.0,98,0.00,,,0.63,Wunderground v.1.15,2013-02-10 22:32:00,
2013-02-10 16:36:00,47.3,46.8,29.48,South,183,15.0,19.0,98,0.00,,,0.63,Wunderground v.1.15,2013-02-10 22:36:00,
2013-02-10 16:38:00,47.3,46.8,29.48,SSE,158,16.0,21.0,98,0.00,,,0.63,Wunderground v.1.15,2013-02-10 22:38:00,
2013-02-10 16:41:00,47.4,46.9,29.48,South,191,15.0,20.0,98,0.00,,,0.63,Wunderground v.1.15,2013-02-10 22:41:00,
2013-02-10 16:43:00,47.5,47.0,29.48,South,175,15.0,20.0,98,0.00,,,0.63,Wunderground v.1.15,2013-02-10 22:43:00,
2013-02-10 16:44:00,47.5,47.0,29.48,South,171,15.0,20.0,98,0.00,,,0.63,Wunderground v.1.15,2013-02-10 22:44:00,
2013-02-10 16:47:00,47.5,47.0,29.48,SE,145,16.0,20.0,98,0.00,,,0.63,Wunderground v.1.15,2013-02-10 22:47:00,
2013-02-10 16:49:00,47.6,47.1,29.49,SSE,160,15.0,20.0,98,0.00,,,0.63,Wunderground v.1.15,2013-02-10 22:49:00,
2013-02-10 16:51:00,47.6,47.1,29.49,SSW,206,15.0,17.0,98,0.00,,,0.63,Wunderground v.1.15,2013-02-10 22:51:00,
2013-02-10 16:53:00,47.6,47.1,29.49,SSE,155,14.0,17.0,98,0.00,,,0.63,Wunderground v.1.15,2013-02-10 22:53:00,
2013-02-10 16:54:00,47.6,47.1,29.48,South,186,14.0,18.0,98,0.00,,,0.63,Wunderground v.1.15,2013-02-10 22:54:00,
2013-02-10 16:55:00,47.7,47.2,29.49,South,169,15.0,18.0,98,0.00,,,0.63,Wunderground v.1.15,2013-02-10 22:55:00,
2013-02-10 16:58:00,47.7,47.2,29.49,South,179,14.0,20.0,98,0.00,,,0.63,Wunderground v.1.15,2013-02-10 22:58:00,
2013-02-10 16:59:00,47.7,47.2,29.49,SSE,152,15.0,20.0,98,0.00,,,0.63,Wunderground v.1.15,2013-02-10 22:59:00,
2013-02-10 17:00:00,47.8,47.3,29.49,South,172,14.0,15.0,98,0.00,,,0.63,Wunderground v.1.15,2013-02-10 23:00:00,
2013-02-10 17:02:00,47.8,47.3,29.49,SSE,160,14.0,15.0,98,0.00,,,0.63,Wunderground v.1.15,2013-02-10 23:02:00,
2013-02-10 17:04:00,47.9,47.4,29.49,South,172,15.0,15.0,98,0.00,,,0.63,Wunderground v.1.15,2013-02-10 23:04:00,
2013-02-10 17:06:00,47.9,47.4,29.49,SSE,168,14.0,22.0,98,0.00,,,0.63,Wunderground v.1.15,2013-02-10 23:06:00,
2013-02-10 17:07:00,47.9,47.4,29.49,SE,139,15.0,22.0,98,0.00,,,0.63,Wunderground v.1.15,2013-02-10 23:07:00,
2013-02-10 17:09:00,47.9,47.4,29.49,SSW,196,14.0,22.0,98,0.00,,,0.63,Wunderground v.1.15,2013-02-10 23:09:00,
2013-02-10 17:11:00,47.9,47.4,29.49,SSE,167,14.0,14.0,98,0.00,,,0.63,Wunderground v.1.15,2013-02-10 23:11:00,
2013-02-10 17:12:00,47.9,47.4,29.49,SSE,159,14.0,20.0,98,0.00,,,0.63,Wunderground v.1.15,2013-02-10 23:12:00,
2013-02-10 17:14:00,47.9,47.4,29.49,South,175,13.0,20.0,98,0.00,,,0.63,Wunderground v.1.15,2013-02-10 23:14:00,
2013-02-10 17:17:00,48.0,47.5,29.48,SSE,155,13.0,20.0,98,0.00,,,0.63,Wunderground v.1.15,2013-02-10 23:17:00,
2013-02-10 17:18:00,48.0,47.5,29.48,SSE,156,14.0,20.0,98,0.00,,,0.63,Wunderground v.1.15,2013-02-10 23:18:00,
2013-02-10 17:20:00,48.0,47.5,29.48,SSE,160,14.0,14.0,98,0.00,,,0.63,Wunderground v.1.15,2013-02-10 23:20:00,
2013-02-10 17:21:00,48.0,47.5,29.49,South,174,13.0,14.0,98,0.00,,,0.63,Wunderground v.1.15,2013-02-10 23:21:00,
2013-02-10 17:23:00,48.1,47.6,29.49,South,173,13.0,15.0,98,0.00,,,0.63,Wunderground v.1.15,2013-02-10 23:23:00,
2013-02-10 17:25:00,48.1,47.6,29.48,South,170,13.0,15.0,98,0.00,,,0.63,Wunderground v.1.15,2013-02-10 23:25:00,
2013-02-10 17:26:00,48.0,47.5,29.48,South,184,13.0,15.0,98,0.00,,,0.63,Wunderground v.1.15,2013-02-10 23:26:00,
2013-02-10 17:28:00,48.1,47.6,29.48,SSE,153,12.0,21.0,98,0.00,,,0.63,Wunderground v.1.15,2013-02-10 23:28:00,
2013-02-10 17:31:00,48.2,47.7,29.48,SSW,197,13.0,13.0,98,0.00,,,0.63,Wunderground v.1.15,2013-02-10 23:31:00,
2013-02-10 17:33:00,48.3,47.8,29.48,SSE,156,13.0,13.0,98,0.00,,,0.63,Wunderground v.1.15,2013-02-10 23:33:00,
2013-02-10 17:35:00,48.3,47.8,29.48,SSE,163,13.0,18.0,98,0.00,,,0.63,Wunderground v.1.15,2013-02-10 23:35:00,
2013-02-10 17:36:00,48.4,47.6,29.49,SSE,158,14.0,18.0,97,0.00,,,0.63,Wunderground v.1.15,2013-02-10 23:36:00,
2013-02-10 17:38:00,48.4,47.6,29.49,SSE,164,14.0,18.0,97,0.00,,,0.63,Wunderground v.1.15,2013-02-10 23:38:00,
2013-02-10 17:39:00,48.4,47.6,29.49,SSE,159,14.0,18.0,97,0.00,,,0.63,Wunderground v.1.15,2013-02-10 23:39:00,
2013-02-10 17:40:00,48.4,47.6,29.49,South,179,14.0,14.0,97,0.00,,,0.63,Wunderground v.1.15,2013-02-10 23:40:00,
2013-02-10 17:43:00,48.4,47.6,29.49,South,180,14.0,15.0,97,0.00,,,0.63,Wunderground v.1.15,2013-02-10 23:43:00,
2013-02-10 17:45:00,48.4,47.6,29.49,South,175,13.0,15.0,97,0.00,,,0.63,Wunderground v.1.15,2013-02-10 23:45:00,
2013-02-10 17:46:00,48.4,47.6,29.49,South,174,13.0,15.0,97,0.00,,,0.63,Wunderground v.1.15,2013-02-10 23:46:00,
2013-02-10 17:47:00,48.4,47.6,29.49,South,184,12.0,20.0,97,0.00,,,0.63,Wunderground v.1.15,2013-02-10 23:47:00,
2013-02-10 17:48:00,48.4,47.6,29.49,South,180,12.0,20.0,97,0.00,,,0.63,Wunderground v.1.15,2013-02-10 23:48:00,
2013-02-10 17:50:00,48.5,47.7,29.49,SSE,168,12.0,12.0,97,0.00,,,0.63,Wunderground v.1.15,2013-02-10 23:50:00,
2013-02-10 17:51:00,48.5,47.7,29.49,South,188,12.0,12.0,97,0.00,,,0.63,Wunderground v.1.15,2013-02-10 23:51:00,
2013-02-10 17:52:00,48.5,47.7,29.49,SSW,198,13.0,16.0,97,0.00,,,0.63,Wunderground v.1.15,2013-02-10 23:52:00,
2013-02-10 17:56:00,48.6,47.8,29.49,SSE,155,14.0,16.0,97,0.00,,,0.63,Wunderground v.1.15,2013-02-10 23:56:00,
2013-02-10 17:57:00,48.6,47.8,29.49,South,174,14.0,16.0,97,0.00,,,0.63,Wunderground v.1.15,2013-02-10 23:57:00,
2013-02-10 17:58:00,48.6,47.5,29.49,South,176,14.0,16.0,96,0.00,,,0.63,Wunderground v.1.15,2013-02-10 23:58:00,
2013-02-10 18:02:00,48.6,47.5,29.48,SSE,148,14.0,17.0,96,0.00,,,0.63,Wunderground v.1.15,2013-02-11 00:02:00,
2013-02-10 18:03:00,48.6,47.5,29.49,South,186,14.0,17.0,96,0.00,,,0.63,Wunderground v.1.15,2013-02-11 00:03:00,
2013-02-10 18:06:00,48.5,47.4,29.49,South,175,13.0,17.0,96,0.00,,,0.63,Wunderground v.1.15,2013-02-11 00:06:00,
2013-02-10 18:09:00,48.5,47.4,29.49,South,174,13.0,17.0,96,0.00,,,0.63,Wunderground v.1.15,2013-02-11 00:09:00,
2013-02-10 18:11:00,48.5,47.4,29.49,SSW,194,13.0,15.0,96,0.00,,,0.63,Wunderground v.1.15,2013-02-11 00:11:00,
2013-02-10 18:12:00,48.5,47.4,29.49,South,169,13.0,16.0,96,0.00,,,0.63,Wunderground v.1.15,2013-02-11 00:12:00,
2013-02-10 18:15:00,48.6,47.5,29.49,SW,215,14.0,19.0,96,0.00,,,0.63,Wunderground v.1.15,2013-02-11 00:15:00,
2013-02-10 18:17:00,48.6,47.5,29.49,SSE,167,14.0,19.0,96,0.00,,,0.63,Wunderground v.1.15,2013-02-11 00:17:00,
2013-02-10 18:19:00,48.6,47.5,29.49,SSE,156,14.0,19.0,96,0.00,,,0.63,Wunderground v.1.15,2013-02-11 00:19:00,
2013-02-10 18:22:00,48.6,47.5,29.49,SSE,165,14.0,21.0,96,0.00,,,0.63,Wunderground v.1.15,2013-02-11 00:22:00,
2013-02-10 18:24:00,48.6,47.2,29.49,South,170,14.0,21.0,95,0.00,,,0.63,Wunderground v.1.15,2013-02-11 00:24:00,
2013-02-10 18:27:00,48.6,47.2,29.49,SSE,148,13.0,21.0,95,0.00,,,0.63,Wunderground v.1.15,2013-02-11 00:27:00,
2013-02-10 18:29:00,48.6,47.2,29.49,South,169,13.0,21.0,95,0.00,,,0.63,Wunderground v.1.15,2013-02-11 00:29:00,
2013-02-10 18:31:00,48.5,47.1,29.49,South,172,12.0,13.0,95,0.00,,,0.63,Wunderground v.1.15,2013-02-11 00:31:00,
2013-02-10 18:33:00,48.4,47.0,29.50,South,174,12.0,16.0,95,0.00,,,0.63,Wunderground v.1.15,2013-02-11 00:33:00,
2013-02-10 18:36:00,48.3,46.9,29.50,SSE,159,11.0,16.0,95,0.00,,,0.63,Wunderground v.1.15,2013-02-11 00:36:00,
2013-02-10 18:38:00,48.3,46.9,29.50,South,177,11.0,16.0,95,0.00,,,0.63,Wunderground v.1.15,2013-02-11 00:38:00,
2013-02-10 18:39:00,48.3,46.9,29.50,South,177,11.0,16.0,95,0.00,,,0.63,Wunderground v.1.15,2013-02-11 00:39:00,
2013-02-10 18:40:00,48.3,46.9,29.50,South,187,11.0,15.0,95,0.00,,,0.63,Wunderground v.1.15,2013-02-11 00:40:00,
2013-02-10 18:44:00,48.3,46.9,29.50,South,181,12.0,15.0,95,0.00,,,0.63,Wunderground v.1.15,2013-02-11 00:44:00,
2013-02-10 18:45:00,48.3,46.9,29.50,South,174,12.0,15.0,95,0.00,,,0.63,Wunderground v.1.15,2013-02-11 00:45:00,
2013-02-10 18:47:00,48.3,46.9,29.50,SSE,158,12.0,17.0,95,0.00,,,0.63,Wunderground v.1.15,2013-02-11 00:47:00,
2013-02-10 18:51:00,48.3,46.9,29.50,South,186,11.0,12.0,95,0.00,,,0.63,Wunderground v.1.15,2013-02-11 00:51:00,
2013-02-10 18:52:00,48.3,46.9,29.50,South,174,11.0,12.0,95,0.00,,,0.63,Wunderground v.1.15,2013-02-11 00:52:00,
2013-02-10 18:53:00,48.3,46.9,29.50,South,177,11.0,12.0,95,0.00,,,0.63,Wunderground v.1.15,2013-02-11 00:53:00,
2013-02-10 18:54:00,48.3,46.9,29.50,South,175,11.0,13.0,95,0.00,,,0.63,Wunderground v.1.15,2013-02-11 00:54:00,
2013-02-10 18:56:00,48.3,46.9,29.50,South,180,11.0,13.0,95,0.00,,,0.63,Wunderground v.1.15,2013-02-11 00:56:00,
2013-02-10 18:57:00,48.4,47.0,29.50,SSE,161,11.0,13.0,95,0.00,,,0.63,Wunderground v.1.15,2013-02-11 00:57:00,
2013-02-10 18:59:00,48.5,47.1,29.51,SSW,195,11.0,17.0,95,0.00,,,0.63,Wunderground v.1.15,2013-02-11 00:59:00,
2013-02-10 19:00:00,48.5,47.1,29.51,SSW,198,12.0,14.0,95,0.00,,,0.63,Wunderground v.1.15,2013-02-11 01:00:00,
2013-02-10 19:04:00,48.5,47.1,29.51,SE,146,12.0,14.0,95,0.00,,,0.63,Wunderground v.1.15,2013-02-11 01:04:00,
2013-02-10 19:05:00,48.5,46.9,29.51,SSW,193,12.0,14.0,94,0.00,,,0.63,Wunderground v.1.15,2013-02-11 01:05:00,
2013-02-10 19:07:00,48.6,47.2,29.51,South,191,12.0,14.0,95,0.00,,,0.63,Wunderground v.1.15,2013-02-11 01:07:00,
2013-02-10 19:08:00,48.6,47.2,29.51,South,187,12.0,14.0,95,0.00,,,0.63,Wunderground v.1.15,2013-02-11 01:08:00,
2013-02-10 19:09:00,48.6,47.0,29.51,SSE,153,12.0,14.0,94,0.00,,,0.63,Wunderground v.1.15,2013-02-11 01:09:00,
2013-02-10 19:10:00,48.6,47.0,29.51,SSW,192,11.0,11.0,94,0.00,,,0.63,Wunderground v.1.15,2013-02-11 01:10:00,
2013-02-10 19:13:00,48.7,47.3,29.51,SSW,203,11.0,14.0,95,0.00,,,0.63,Wunderground v.1.15,2013-02-11 01:13:00,
2013-02-10 19:14:00,48.7,47.1,29.51,SSW,198,11.0,14.0,94,0.00,,,0.63,Wunderground v.1.15,2013-02-11 01:14:00,
2013-02-10 19:16:00,48.8,47.2,29.51,South,183,12.0,16.0,94,0.00,,,0.63,Wunderground v.1.15,2013-02-11 01:16:00,
2013-02-10 19:20:00,48.9,47.2,29.51,South,188,12.0,14.0,94,0.00,,,0.63,Wunderground v.1.15,2013-02-11 01:20:00,
2013-02-10 19:21:00,48.9,47.2,29.51,South,176,12.0,14.0,94,0.00,,,0.63,Wunderground v.1.15,2013-02-11 01:21:00,
2013-02-10 19:22:00,48.9,47.2,29.51,South,180,12.0,14.0,94,0.00,,,0.63,Wunderground v.1.15,2013-02-11 01:22:00,
2013-02-10 19:25:00,48.8,47.2,29.51,SSW,194,11.0,14.0,94,0.00,,,0.63,Wunderground v.1.15,2013-02-11 01:25:00,
2013-02-10 19:28:00,48.8,47.2,29.52,SSW,197,11.0,14.0,94,0.00,,,0.63,Wunderground v.1.15,2013-02-11 01:28:00,
2013-02-10 19:31:00,48.9,47.2,29.52,SSW,210,11.0,17.0,94,0.00,,,0.63,Wunderground v.1.15,2013-02-11 01:31:00,
2013-02-10 19:32:00,48.9,47.2,29.52,South,188,12.0,17.0,94,0.00,,,0.63,Wunderground v.1.15,2013-02-11 01:32:00,
2013-02-10 19:34:00,48.8,47.2,29.52,SSW,203,12.0,17.0,94,0.00,,,0.63,Wunderground v.1.15,2013-02-11 01:34:00,
2013-02-10 19:35:00,48.8,47.2,29.52,SSW,211,12.0,17.0,94,0.00,,,0.63,Wunderground v.1.15,2013-02-11 01:35:00,
2013-02-10 19:37:00,48.7,47.1,29.52,WSW,245,12.0,17.0,94,0.00,,,0.63,Wunderground v.1.15,2013-02-11 01:37:00,
2013-02-10 19:40:00,48.6,47.0,29.52,SW,225,11.0,11.0,94,0.00,,,0.63,Wunderground v.1.15,2013-02-11 01:40:00,
2013-02-10 19:41:00,48.6,46.7,29.52,SSW,205,11.0,12.0,93,0.00,,,0.63,Wunderground v.1.15,2013-02-11 01:41:00,
2013-02-10 19:43:00,48.5,46.9,29.52,SW,227,10.0,12.0,94,0.00,,,0.63,Wunderground v.1.15,2013-02-11 01:43:00,
2013-02-10 19:45:00,48.5,46.9,29.53,SSW,211,10.0,14.0,94,0.00,,,0.63,Wunderground v.1.15,2013-02-11 01:45:00,
2013-02-10 19:48:00,48.4,46.5,29.53,SSW,212,10.0,14.0,93,0.00,,,0.63,Wunderground v.1.15,2013-02-11 01:48:00,
2013-02-10 19:49:00,48.4,46.5,29.53,SW,231,10.0,14.0,93,0.00,,,0.63,Wunderground v.1.15,2013-02-11 01:49:00,
2013-02-10 19:50:00,48.3,46.4,29.53,SW,226,10.0,13.0,93,0.00,,,0.63,Wunderground v.1.15,2013-02-11 01:50:00,
2013-02-10 19:53:00,48.2,46.3,29.53,SW,228,11.0,15.0,93,0.00,,,0.63,Wunderground v.1.15,2013-02-11 01:53:00,
2013-02-10 19:54:00,48.1,46.2,29.53,SW,222,11.0,15.0,93,0.00,,,0.63,Wunderground v.1.15,2013-02-11 01:54:00,
2013-02-10 19:55:00,48.0,46.1,29.53,SW,231,11.0,15.0,93,0.00,,,0.63,Wunderground v.1.15,2013-02-11 01:55:00,
2013-02-10 19:57:00,48.1,46.2,29.53,WSW,240,11.0,15.0,93,0.00,,,0.63,Wunderground v.1.15,2013-02-11 01:57:00,
2013-02-10 20:00:00,48.0,45.8,29.53,WSW,249,11.0,11.0,92,0.00,,,0.63,Wunderground v.1.15,2013-02-11 02:00:00,
2013-02-10 20:02:00,47.9,45.7,29.54,SW,231,11.0,11.0,92,0.00,,,0.63,Wunderground v.1.15,2013-02-11 02:02:00,
2013-02-10 20:03:00,47.8,45.6,29.54,SW,229,10.0,11.0,92,0.00,,,0.63,Wunderground v.1.15,2013-02-11 02:03:00,
2013-02-10 20:06:00,47.8,45.9,29.54,SW,229,9.0,11.0,93,0.00,,,0.63,Wunderground v.1.15,2013-02-11 02:06:00,
2013-02-10 20:08:00,47.8,45.9,29.54,SW,224,9.0,12.0,93,0.00,,,0.63,Wunderground v.1.15,2013-02-11 02:08:00,
2013-02-10 20:12:00,47.7,45.2,29.54,SW,228,9.0,12.0,91,0.00,,,0.63,Wunderground v.1.15,2013-02-11 02:12:00,
2013-02-10 20:13:00,47.7,45.2,29.54,WSW,242,9.0,12.0,91,0.00,,,0.63,Wunderground v.1.15,2013-02-11 02:13:00,
2013-02-10 20:17:00,47.4,44.9,29.54,SW,235,10.0,15.0,91,0.00,,,0.63,Wunderground v.1.15,2013-02-11 02:17:00,
2013-02-10 20:19:00,47.5,44.4,29.54,WSW,238,10.0,15.0,89,0.00,,,0.63,Wunderground v.1.15,2013-02-11 02:19:00,
2013-02-10 20:23:00,47.4,43.7,29.55,SW,229,11.0,13.0,87,0.00,,,0.63,Wunderground v.1.15,2013-02-11 02:23:00,
2013-02-10 20:24:00,47.3,43.3,29.55,WSW,242,11.0,13.0,86,0.00,,,0.63,Wunderground v.1.15,2013-02-11 02:24:00,
2013-02-10 20:25:00,47.3,43.3,29.55,SW,235,11.0,13.0,86,0.00,,,0.63,Wunderground v.1.15,2013-02-11 02:25:00,
2013-02-10 20:29:00,47.2,42.9,29.55,SW,228,12.0,13.0,85,0.00,,,0.63,Wunderground v.1.15,2013-02-11 02:29:00,
2013-02-10 20:31:00,47.2,42.9,29.55,WSW,250,11.0,11.0,85,0.00,,,0.63,Wunderground v.1.15,2013-02-11 02:31:00,
2013-02-10 20:33:00,47.2,42.6,29.54,SW,228,11.0,11.0,84,0.00,,,0.63,Wunderground v.1.15,2013-02-11 02:33:00,
2013-02-10 20:35:00,47.1,42.5,29.54,WSW,250,10.0,11.0,84,0.00,,,0.63,Wunderground v.1.15,2013-02-11 02:35:00,
2013-02-10 20:37:00,47.1,42.2,29.55,WSW,256,10.0,11.0,83,0.00,,,0.63,Wunderground v.1.15,2013-02-11 02:37:00,
2013-02-10 20:39:00,47.1,42.2,29.55,WSW,243,9.0,11.0,83,0.00,,,0.63,Wunderground v.1.15,2013-02-11 02:39:00,
2013-02-10 20:40:00,47.0,42.1,29.54,SW,231,9.0,9.0,83,0.00,,,0.63,Wunderground v.1.15,2013-02-11 02:40:00,
2013-02-10 20:41:00,46.9,42.0,29.54,SW,226,9.0,9.0,83,0.00,,,0.63,Wunderground v.1.15,2013-02-11 02:41:00,
2013-02-10 20:43:00,46.9,42.0,29.54,SW,235,9.0,11.0,83,0.00,,,0.63,Wunderground v.1.15,2013-02-11 02:43:00,
2013-02-10 20:46:00,46.9,40.7,29.54,SW,225,9.0,13.0,79,0.00,,,0.63,Wunderground v.1.15,2013-02-11 02:46:00,
2013-02-10 20:48:00,46.8,40.3,29.55,WSW,238,10.0,13.0,78,0.00,,,0.63,Wunderground v.1.15,2013-02-11 02:48:00,
2013-02-10 20:50:00,46.9,39.7,29.55,SW,232,11.0,15.0,76,0.00,,,0.63,Wunderground v.1.15,2013-02-11 02:50:00,
2013-02-10 20:53:00,46.8,39.3,29.55,SW,229,12.0,15.0,75,0.00,,,0.63,Wunderground v.1.15,2013-02-11 02:53:00,
2013-02-10 20:54:00,46.8,39.3,29.55,SW,225,12.0,15.0,75,0.00,,,0.63,Wunderground v.1.15,2013-02-11 02:54:00,
2013-02-10 20:56:00,46.6,39.1,29.55,WSW,240,12.0,16.0,75,0.00,,,0.63,Wunderground v.1.15,2013-02-11 02:56:00,
2013-02-10 20:57:00,46.6,39.1,29.55,SW,231,13.0,16.0,75,0.00,,,0.63,Wunderground v.1.15,2013-02-11 02:57:00,
2013-02-10 20:58:00,46.6,39.1,29.55,SW,222,13.0,16.0,75,0.00,,,0.63,Wunderground v.1.15,2013-02-11 02:58:00,
2013-02-10 21:00:00,46.5,38.7,29.55,SSW,200,12.0,17.0,74,0.00,,,0.63,Wunderground v.1.15,2013-02-11 03:00:00,
2013-02-10 21:01:00,46.5,38.7,29.55,SW,233,12.0,17.0,74,0.00,,,0.63,Wunderground v.1.15,2013-02-11 03:01:00,
2013-02-10 21:05:00,46.6,38.4,29.55,SW,236,13.0,20.0,73,0.00,,,0.63,Wunderground v.1.15,2013-02-11 03:05:00,
2013-02-10 21:06:00,46.6,38.8,29.55,SW,221,14.0,20.0,74,0.00,,,0.63,Wunderground v.1.15,2013-02-11 03:06:00,
2013-02-10 21:07:00,46.5,38.3,29.55,SW,235,13.0,20.0,73,0.00,,,0.63,Wunderground v.1.15,2013-02-11 03:07:00,
2013-02-10 21:10:00,46.7,38.1,29.55,SW,227,14.0,15.0,72,0.00,,,0.63,Wunderground v.1.15,2013-02-11 03:10:00,
2013-02-10 21:11:00,46.7,38.1,29.55,SW,225,14.0,19.0,72,0.00,,,0.63,Wunderground v.1.15,2013-02-11 03:11:00,
2013-02-10 21:12:00,46.8,38.2,29.55,WSW,239,14.0,19.0,72,0.00,,,0.63,Wunderground v.1.15,2013-02-11 03:12:00,
2013-02-10 21:13:00,46.8,37.9,29.55,WSW,239,14.0,19.0,71,0.00,,,0.63,Wunderground v.1.15,2013-02-11 03:13:00,
2013-02-10 21:15:00,46.9,38.3,29.55,SW,226,14.0,19.0,72,0.00,,,0.63,Wunderground v.1.15,2013-02-11 03:15:00,
2013-02-10 21:16:00,46.8,37.9,29.55,WSW,242,14.0,19.0,71,0.00,,,0.63,Wunderground v.1.15,2013-02-11 03:16:00,
2013-02-10 21:19:00,46.6,38.1,29.56,SW,222,13.0,19.0,72,0.00,,,0.63,Wunderground v.1.15,2013-02-11 03:19:00,
2013-02-10 21:21:00,46.7,38.1,29.56,SW,224,13.0,13.0,72,0.00,,,0.63,Wunderground v.1.15,2013-02-11 03:21:00,
2013-02-10 21:24:00,46.5,38.0,29.56,WSW,238,12.0,14.0,72,0.00,,,0.63,Wunderground v.1.15,2013-02-11 03:24:00,
2013-02-10 21:25:00,46.4,37.9,29.56,WSW,243,12.0,14.0,72,0.00,,,0.63,Wunderground v.1.15,2013-02-11 03:25:00,
2013-02-10 21:27:00,46.3,37.8,29.56,SW,224,12.0,18.0,72,0.00,,,0.63,Wunderground v.1.15,2013-02-11 03:27:00,
2013-02-10 21:29:00,46.3,37.8,29.56,SW,226,13.0,18.0,72,0.00,,,0.63,Wunderground v.1.15,2013-02-11 03:29:00,
2013-02-10 21:30:00,46.4,37.9,29.56,SSW,203,13.0,15.0,72,0.00,,,0.63,Wunderground v.1.15,2013-02-11 03:30:00,
2013-02-10 21:31:00,46.4,37.9,29.56,SW,235,13.0,15.0,72,0.00,,,0.63,Wunderground v.1.15,2013-02-11 03:31:00,
2013-02-10 21:32:00,46.4,37.5,29.56,SW,235,14.0,15.0,71,0.00,,,0.63,Wunderground v.1.15,2013-02-11 03:32:00,
2013-02-10 21:34:00,46.4,37.9,29.56,SW,228,14.0,20.0,72,0.00,,,0.63,Wunderground v.1.15,2013-02-11 03:34:00,
2013-02-10 21:36:00,46.4,37.9,29.56,SW,225,15.0,20.0,72,0.00,,,0.63,Wunderground v.1.15,2013-02-11 03:36:00,
2013-02-10 21:37:00,46.5,37.6,29.56,SW,231,16.0,20.0,71,0.00,,,0.63,Wunderground v.1.15,2013-02-11 03:37:00,
2013-02-10 21:41:00,46.7,37.1,29.56,SW,232,17.0,25.0,69,0.00,,,0.63,Wunderground v.1.15,2013-02-11 03:41:00,
2013-02-10 21:42:00,46.7,37.1,29.56,SW,232,17.0,25.0,69,0.00,,,0.63,Wunderground v.1.15,2013-02-11 03:42:00,
2013-02-10 21:44:00,46.7,37.4,29.57,SW,232,17.0,25.0,70,0.00,,,0.63,Wunderground v.1.15,2013-02-11 03:44:00,
2013-02-10 21:45:00,46.7,37.1,29.56,SW,233,17.0,25.0,69,0.00,,,0.63,Wunderground v.1.15,2013-02-11 03:45:00,
2013-02-10 21:46:00,46.7,37.4,29.56,WSW,252,18.0,25.0,70,0.00,,,0.63,Wunderground v.1.15,2013-02-11 03:46:00,
2013-02-10 21:48:00,46.5,36.9,29.57,West,260,18.0,25.0,69,0.00,,,0.63,Wunderground v.1.15,2013-02-11 03:48:00,
2013-02-10 21:50:00,46.4,37.5,29.57,SW,231,17.0,17.0,71,0.00,,,0.63,Wunderground v.1.15,2013-02-11 03:50:00,
2013-02-10 21:51:00,46.4,37.1,29.57,WSW,242,17.0,19.0,70,0.00,,,0.63,Wunderground v.1.15,2013-02-11 03:51:00,
2013-02-10 21:53:00,46.2,37.3,29.57,SW,232,16.0,19.0,71,0.00,,,0.63,Wunderground v.1.15,2013-02-11 03:53:00,
2013-02-10 21:55:00,46.0,37.1,29.56,SW,231,15.0,19.0,71,0.00,,,0.63,Wunderground v.1.15,2013-02-11 03:55:00,
2013-02-10 21:57:00,45.9,37.4,29.57,WSW,245,14.0,19.0,72,0.00,,,0.63,Wunderground v.1.15,2013-02-11 03:57:00,
2013-02-10 21:58:00,45.8,37.3,29.57,SW,232,14.0,19.0,72,0.00,,,0.63,Wunderground v.1.15,2013-02-11 03:58:00,
2013-02-10 21:59:00,45.7,37.2,29.57,WSW,238,14.0,19.0,72,0.00,,,0.63,Wunderground v.1.15,2013-02-11 03:59:00,
2013-02-10 22:00:00,45.6,37.1,29.56,WSW,239,13.0,13.0,72,0.00,,,0.63,Wunderground v.1.15,2013-02-11 04:00:00,
2013-02-10 22:04:00,45.5,37.3,29.57,SW,235,13.0,13.0,73,0.00,,,0.63,Wunderground v.1.15,2013-02-11 04:04:00,
2013-02-10 22:06:00,45.4,36.9,29.57,SW,235,12.0,13.0,72,0.00,,,0.63,Wunderground v.1.15,2013-02-11 04:06:00,
2013-02-10 22:07:00,45.3,37.2,29.57,SW,224,12.0,17.0,73,0.00,,,0.63,Wunderground v.1.15,2013-02-11 04:07:00,
2013-02-10 22:11:00,45.3,37.2,29.57,SW,233,12.0,16.0,73,0.00,,,0.63,Wunderground v.1.15,2013-02-11 04:11:00,
2013-02-10 22:13:00,45.1,37.3,29.57,WSW,244,12.0,16.0,74,0.00,,,0.63,Wunderground v.1.15,2013-02-11 04:13:00,
2013-02-10 22:14:00,45.1,37.3,29.57,SW,228,12.0,16.0,74,0.00,,,0.63,Wunderground v.1.15,2013-02-11 04:14:00,
2013-02-10 22:17:00,44.7,36.9,29.57,SW,224,12.0,16.0,74,0.00,,,0.63,Wunderground v.1.15,2013-02-11 04:17:00,
2013-02-10 22:18:00,44.7,36.9,29.57,SW,217,12.0,16.0,74,0.00,,,0.63,Wunderground v.1.15,2013-02-11 04:18:00,
2013-02-10 22:19:00,44.7,36.6,29.57,SW,235,12.0,18.0,73,0.00,,,0.63,Wunderground v.1.15,2013-02-11 04:19:00,
2013-02-10 22:21:00,44.8,36.7,29.57,WSW,250,13.0,14.0,73,0.00,,,0.63,Wunderground v.1.15,2013-02-11 04:21:00,
2013-02-10 22:22:00,44.8,36.7,29.57,WSW,246,13.0,14.0,73,0.00,,,0.63,Wunderground v.1.15,2013-02-11 04:22:00,
2013-02-10 22:24:00,44.8,36.3,29.57,WSW,238,14.0,14.0,72,0.00,,,0.63,Wunderground v.1.15,2013-02-11 04:24:00,
2013-02-10 22:26:00,44.8,36.0,29.57,SW,219,15.0,18.0,71,0.00,,,0.63,Wunderground v.1.15,2013-02-11 04:26:00,
2013-02-10 22:28:00,44.9,36.1,29.57,SW,224,16.0,18.0,71,0.00,,,0.63,Wunderground v.1.15,2013-02-11 04:28:00,
2013-02-10 22:33:00,44.8,35.6,29.57,WSW,239,15.0,17.0,70,0.00,,,0.63,Wunderground v.1.15,2013-02-11 04:33:00,
2013-02-10 22:36:00,44.9,35.7,29.57,WSW,243,16.0,23.0,70,0.00,,,0.63,Wunderground v.1.15,2013-02-11 04:36:00,
2013-02-10 22:38:00,44.9,35.7,29.57,West,276,16.0,23.0,70,0.00,,,0.63,Wunderground v.1.15,2013-02-11 04:38:00,
2013-02-10 22:39:00,44.8,35.6,29.57,WSW,245,16.0,23.0,70,0.00,,,0.63,Wunderground v.1.15,2013-02-11 04:39:00,
2013-02-10 22:41:00,44.6,35.8,29.57,WSW,253,16.0,16.0,71,0.00,,,0.63,Wunderground v.1.15,2013-02-11 04:41:00,
2013-02-10 22:44:00,44.3,35.8,29.57,WSW,248,15.0,20.0,72,0.00,,,0.63,Wunderground v.1.15,2013-02-11 04:44:00,
2013-02-10 22:45:00,44.3,35.1,29.58,WSW,245,15.0,29.0,70,0.00,,,0.63,Wunderground v.1.15,2013-02-11 04:45:00,
2013-02-10 22:49:00,44.4,34.5,29.57,SW,222,18.0,30.0,68,0.00,,,0.63,Wunderground v.1.15,2013-02-11 04:49:00,
2013-02-10 22:50:00,44.3,34.0,29.57,WSW,248,19.0,30.0,67,0.00,,,0.63,Wunderground v.1.15,2013-02-11 04:50:00,
2013-02-10 22:51:00,44.3,33.7,29.57,SW,229,20.0,30.0,66,0.00,,,0.63,Wunderground v.1.15,2013-02-11 04:51:00,
2013-02-10 22:54:00,44.2,33.9,29.58,SW,233,23.0,30.0,67,0.00,,,0.63,Wunderground v.1.15,2013-02-11 04:54:00,
2013-02-10 22:56:00,44.0,33.4,29.58,WSW,243,23.0,30.0,66,0.00,,,0.63,Wunderground v.1.15,2013-02-11 04:56:00,
2013-02-10 22:57:00,44.0,33.7,29.57,WSW,253,22.0,30.0,67,0.00,,,0.63,Wunderground v.1.15,2013-02-11 04:57:00,
2013-02-10 23:00:00,43.7,33.8,29.58,WSW,246,20.0,20.0,68,0.00,,,0.63,Wunderground v.1.15,2013-02-11 05:00:00,
2013-02-10 23:01:00,43.6,33.7,29.58,WSW,246,20.0,27.0,68,0.00,,,0.63,Wunderground v.1.15,2013-02-11 05:01:00,
2013-02-10 23:02:00,43.6,33.4,29.58,WSW,252,20.0,27.0,67,0.00,,,0.63,Wunderground v.1.15,2013-02-11 05:02:00,
2013-02-10 23:06:00,43.4,33.5,29.58,SW,228,19.0,27.0,68,0.00,,,0.63,Wunderground v.1.15,2013-02-11 05:06:00,
2013-02-10 23:07:00,43.3,33.4,29.58,West,262,18.0,27.0,68,0.00,,,0.63,Wunderground v.1.15,2013-02-11 05:07:00,
2013-02-10 23:09:00,43.3,33.8,29.58,WSW,246,19.0,27.0,69,0.00,,,0.63,Wunderground v.1.15,2013-02-11 05:09:00,
2013-02-10 23:13:00,43.1,33.6,29.58,SW,232,19.0,19.0,69,0.00,,,0.63,Wunderground v.1.15,2013-02-11 05:13:00,
2013-02-10 23:14:00,43.0,33.9,29.58,WSW,255,19.0,19.0,70,0.00,,,0.63,Wunderground v.1.15,2013-02-11 05:14:00,
2013-02-10 23:15:00,42.9,33.8,29.58,WSW,253,19.0,19.0,70,0.00,,,0.63,Wunderground v.1.15,2013-02-11 05:15:00,
2013-02-10 23:17:00,42.8,33.3,29.58,WSW,254,19.0,24.0,69,0.00,,,0.63,Wunderground v.1.15,2013-02-11 05:17:00,
2013-02-10 23:18:00,42.8,33.7,29.59,WSW,249,19.0,24.0,70,0.00,,,0.63,Wunderground v.1.15,2013-02-11 05:18:00,
2013-02-10 23:21:00,42.6,33.5,29.59,WSW,254,19.0,23.0,70,0.00,,,0.63,Wunderground v.1.15,2013-02-11 05:21:00,
2013-02-10 23:24:00,42.5,33.4,29.59,WSW,256,19.0,24.0,70,0.00,,,0.63,Wunderground v.1.15,2013-02-11 05:24:00,
2013-02-10 23:25:00,42.4,33.7,29.59,WSW,245,19.0,37.0,71,0.00,,,0.63,Wunderground v.1.15,2013-02-11 05:25:00,
2013-02-10 23:27:00,42.4,33.3,29.59,WSW,249,21.0,37.0,70,0.00,,,0.63,Wunderground v.1.15,2013-02-11 05:27:00,
2013-02-10 23:28:00,42.3,33.2,29.59,WSW,250,21.0,37.0,70,0.00,,,0.63,Wunderground v.1.15,2013-02-11 05:28:00,
2013-02-10 23:30:00,42.2,33.5,29.59,WSW,245,22.0,24.0,71,0.00,,,0.63,Wunderground v.1.15,2013-02-11 05:30:00,
2013-02-10 23:33:00,42.0,33.3,29.59,WSW,243,22.0,24.0,71,0.00,,,0.63,Wunderground v.1.15,2013-02-11 05:33:00,
2013-02-10 23:34:00,42.0,33.3,29.59,WSW,252,22.0,24.0,71,0.00,,,0.63,Wunderground v.1.15,2013-02-11 05:34:00,
2013-02-10 23:35:00,42.0,33.3,29.59,WSW,239,22.0,24.0,71,0.00,,,0.63,Wunderground v.1.15,2013-02-11 05:35:00,
2013-02-10 23:38:00,41.8,33.1,29.60,SW,231,21.0,29.0,71,0.00,,,0.63,Wunderground v.1.15,2013-02-11 05:38:00,
2013-02-10 23:39:00,41.8,33.4,29.59,WSW,249,21.0,29.0,72,0.00,,,0.63,Wunderground v.1.15,2013-02-11 05:39:00,
2013-02-10 23:40:00,41.7,33.3,29.59,WSW,246,21.0,21.0,72,0.00,,,0.63,Wunderground v.1.15,2013-02-11 05:40:00,
2013-02-10 23:42:00,41.6,33.6,29.59,WSW,242,21.0,26.0,73,0.00,,,0.63,Wunderground v.1.15,2013-02-11 05:42:00,
2013-02-10 23:43:00,41.6,33.2,29.59,SW,235,21.0,26.0,72,0.00,,,0.63,Wunderground v.1.15,2013-02-11 05:43:00,
2013-02-10 23:48:00,41.3,33.3,29.60,WSW,250,20.0,26.0,73,0.00,,,0.63,Wunderground v.1.15,2013-02-11 05:48:00,
2013-02-10 23:49:00,41.3,33.3,29.60,WSW,254,19.0,26.0,73,0.00,,,0.63,Wunderground v.1.15,2013-02-11 05:49:00,
2013-02-10 23:51:00,41.2,33.5,29.60,WSW,243,19.0,19.0,74,0.00,,,0.63,Wunderground v.1.15,2013-02-11 05:51:00,
2013-02-10 23:52:00,41.1,33.8,29.60,WSW,252,18.0,19.0,75,0.00,,,0.63,Wunderground v.1.15,2013-02-11 05:52:00,
2013-02-10 23:56:00,40.8,33.5,29.60,WSW,252,16.0,22.0,75,0.00,,,0.63,Wunderground v.1.15,2013-02-11 05:56:00,
2013-02-10 23:57:00,40.7,33.4,29.60,SW,226,15.0,22.0,75,0.00,,,0.63,Wunderground v.1.15,2013-02-11 05:57:00,